| time (UTC) | temp F | wind direction | speed MPH | gust MPH | rain 1hr in | rain 24hr in | rain mn in | humidity % | barometer mb |
| 20260507223532 | 84 | 105 | 1.0 | 0.0 | 0.00 | 0.00 | 0.00 | 41 | 1013.5 |
| 20260507223502 | 84 | 105 | 1.0 | 0.0 | 0.00 | 0.00 | 0.00 | 42 | 1013.5 |
| 20260507223308 | 84 | 105 | 1.0 | 2.0 | 0.00 | 0.00 | 0.00 | 42 | 1013.5 |
| 20260507223239 | 86 | 298 | 1.0 | 5.0 | 0.00 | 0.00 | 0.00 | 42 | 1013.7 |
| 20260507223231 | 84 | 209 | 3.0 | 0.0 | 0.00 | 0.00 | 0.00 | 41 | 1013.7 |
| 20260507223024 | 84 | 209 | 3.0 | 0.0 | 0.00 | 0.00 | 0.00 | 42 | 1013.7 |
| 20260507222948 | 83 | 209 | 3.0 | 0.0 | 0.00 | 0.00 | 0.00 | 42 | 1013.7 |
| 20260507222904 | 84 | 209 | 3.0 | 0.0 | 0.00 | 0.00 | 0.00 | 41 | 1013.7 |
| 20260507222821 | 84 | 209 | 3.0 | 0.0 | 0.00 | 0.00 | 0.00 | 41 | 1013.7 |
| 20260507222758 | 84 | 209 | 3.0 | 0.0 | 0.00 | 0.00 | 0.00 | 41 | 1013.7 |
| 20260507222736 | 86 | 278 | 2.0 | 4.0 | 0.00 | 0.00 | 0.00 | 41 | 1013.7 |
| 20260507222728 | 84 | 209 | 3.0 | 0.0 | 0.00 | 0.00 | 0.00 | 42 | 1013.7 |
| 20260507222448 | 83 | 209 | 3.0 | 0.0 | 0.00 | 0.00 | 0.00 | 42 | 1013.7 |
| 20260507222359 | 83 | 209 | 3.0 | 0.0 | 0.00 | 0.00 | 0.00 | 42 | 1013.7 |
| 20260507222329 | 83 | 209 | 3.0 | 3.0 | 0.00 | 0.00 | 0.00 | 44 | 1013.7 |
| 20260507222232 | 86 | 316 | 2.0 | 4.0 | 0.00 | 0.00 | 0.00 | 41 | 1013.9 |
| 20260507222154 | 82 | 292 | 0.0 | 0.0 | 0.00 | 0.00 | 0.00 | 43 | 1013.9 |
| 20260507222124 | 83 | 292 | 0.0 | 0.0 | 0.00 | 0.00 | 0.00 | 42 | 1013.9 |
| 20260507221858 | 84 | 292 | 0.0 | 0.0 | 0.00 | 0.00 | 0.00 | 41 | 1013.9 |
| 20260507221834 | 83 | 292 | 0.0 | 0.0 | 0.00 | 0.00 | 0.00 | 42 | 1013.9 |
| 20260507221811 | 83 | 292 | 0.0 | 0.0 | 0.00 | 0.00 | 0.00 | 42 | 1013.9 |
| 20260507221740 | 84 | 292 | 0.0 | 0.0 | 0.00 | 0.00 | 0.00 | 41 | 1013.9 |
| 20260507221730 | 86 | 252 | 2.0 | 5.0 | 0.00 | 0.00 | 0.00 | 42 | 1013.6 |
| 20260507221553 | 84 | 292 | 0.0 | 0.0 | 0.00 | 0.00 | 0.00 | 42 | 1013.9 |
| 20260507221523 | 84 | 292 | 0.0 | 0.0 | 0.00 | 0.00 | 0.00 | 43 | 1013.9 |
| 20260507221453 | 84 | 292 | 0.0 | 0.0 | 0.00 | 0.00 | 0.00 | 41 | 1013.9 |
| 20260507221402 | 84 | 292 | 0.0 | 0.0 | 0.00 | 0.00 | 0.00 | 42 | 1013.9 |
| 20260507221226 | 86 | 321 | 2.0 | 4.0 | 0.00 | 0.00 | 0.00 | 41 | 1013.7 |
| 20260507221222 | 83 | 20 | 0.0 | 0.0 | 0.00 | 0.00 | 0.00 | 42 | 1013.9 |
| 20260507221159 | 83 | 20 | 0.0 | 0.0 | 0.00 | 0.00 | 0.00 | 43 | 1013.9 |
| 20260507221128 | 83 | 20 | 0.0 | 0.0 | 0.00 | 0.00 | 0.00 | 42 | 1013.9 |
| 20260507221039 | 83 | 20 | 0.0 | 0.0 | 0.00 | 0.00 | 0.00 | 42 | 1013.9 |
| 20260507220722 | 86 | 308 | 1.0 | 4.0 | 0.00 | 0.00 | 0.00 | 41 | 1013.8 |
| 20260507220503 | 84 | 20 | 0.0 | 0.0 | 0.00 | 0.00 | 0.00 | 42 | 1013.9 |
| 20260507220439 | 84 | 20 | 0.0 | 0.0 | 0.00 | 0.00 | 0.00 | 42 | 1013.9 |
| 20260507220409 | 84 | 20 | 0.0 | 0.0 | 0.00 | 0.00 | 0.00 | 43 | 1013.9 |
| 20260507220320 | 83 | 20 | 0.0 | 0.0 | 0.00 | 0.00 | 0.00 | 43 | 1013.9 |
| 20260507220250 | 83 | 20 | 0.0 | 1.0 | 0.00 | 0.00 | 0.00 | 43 | 1013.9 |
| 20260507220221 | 86 | 6 | 4.0 | 5.0 | 0.00 | 0.00 | 0.00 | 41 | 1014.0 |
| 20260507220038 | 82 | 135 | 5.0 | 0.0 | 0.00 | 0.00 | 0.00 | 43 | 1014.1 |
| 20260507215850 | 82 | 135 | 5.0 | 0.0 | 0.00 | 0.00 | 0.00 | 44 | 1014.1 |
| 20260507215820 | 82 | 135 | 5.0 | 0.0 | 0.00 | 0.00 | 0.00 | 43 | 1014.1 |
| 20260507215744 | 82 | 135 | 5.0 | 0.0 | 0.00 | 0.00 | 0.00 | 43 | 1014.1 |
| 20260507215717 | 87 | 336 | 4.0 | 4.0 | 0.00 | 0.00 | 0.00 | 41 | 1013.8 |
| 20260507215713 | 82 | 135 | 5.0 | 0.0 | 0.00 | 0.00 | 0.00 | 44 | 1014.1 |
| 20260507215649 | 82 | 135 | 5.0 | 0.0 | 0.00 | 0.00 | 0.00 | 43 | 1014.1 |
| 20260507215606 | 82 | 135 | 5.0 | 0.0 | 0.00 | 0.00 | 0.00 | 43 | 1014.1 |
| 20260507215248 | 82 | 135 | 5.0 | 0.0 | 0.00 | 0.00 | 0.00 | 43 | 1014.1 |
| 20260507215218 | 82 | 135 | 5.0 | 0.0 | 0.00 | 0.00 | 0.00 | 44 | 1014.1 |
| 20260507215214 | 86 | 328 | 0.0 | 7.0 | 0.00 | 0.00 | 0.00 | 43 | 1013.9 |
| 20260507215148 | 81 | 135 | 5.0 | 0.0 | 0.00 | 0.00 | 0.00 | 45 | 1014.1 |
| 20260507215118 | 81 | 135 | 5.0 | 0.0 | 0.00 | 0.00 | 0.00 | 44 | 1014.1 |
| 20260507215048 | 81 | 135 | 5.0 | 5.0 | 0.00 | 0.00 | 0.00 | 44 | 1014.1 |
| 20260507215009 | 81 | 18 | 2.0 | 0.0 | 0.00 | 0.00 | 0.00 | 44 | 1014.0 |
| 20260507214925 | 82 | 18 | 2.0 | 0.0 | 0.00 | 0.00 | 0.00 | 44 | 1014.0 |
| 20260507214902 | 82 | 18 | 2.0 | 0.0 | 0.00 | 0.00 | 0.00 | 44 | 1014.0 |
| 20260507214832 | 81 | 18 | 2.0 | 0.0 | 0.00 | 0.00 | 0.00 | 45 | 1014.0 |
| 20260507214749 | 81 | 18 | 2.0 | 0.0 | 0.00 | 0.00 | 0.00 | 44 | 1014.0 |
| 20260507214725 | 81 | 18 | 2.0 | 0.0 | 0.00 | 0.00 | 0.00 | 44 | 1014.0 |
| 20260507214711 | 86 | 327 | 2.0 | 4.0 | 0.00 | 0.00 | 0.00 | 42 | 1013.8 |
| 20260507214701 | 81 | 18 | 2.0 | 0.0 | 0.00 | 0.00 | 0.00 | 45 | 1014.0 |
| 20260507214631 | 81 | 18 | 2.0 | 0.0 | 0.00 | 0.00 | 0.00 | 44 | 1014.0 |
| 20260507214601 | 82 | 18 | 2.0 | 0.0 | 0.00 | 0.00 | 0.00 | 44 | 1014.0 |
| 20260507214511 | 82 | 18 | 2.0 | 0.0 | 0.00 | 0.00 | 0.00 | 43 | 1014.0 |
| 20260507214429 | 82 | 18 | 2.0 | 0.0 | 0.00 | 0.00 | 0.00 | 44 | 1014.0 |
| 20260507214405 | 82 | 18 | 2.0 | 0.0 | 0.00 | 0.00 | 0.00 | 44 | 1014.0 |
| 20260507214335 | 82 | 18 | 2.0 | 0.0 | 0.00 | 0.00 | 0.00 | 43 | 1014.0 |
| 20260507214239 | 82 | 18 | 2.0 | 0.0 | 0.00 | 0.00 | 0.00 | 43 | 1014.0 |
| 20260507214208 | 86 | 265 | 3.0 | 5.0 | 0.00 | 0.00 | 0.00 | 42 | 1013.8 |
| 20260507213927 | 82 | 160 | 2.0 | 0.0 | 0.00 | 0.00 | 0.00 | 43 | 1014.2 |
| 20260507213734 | 82 | 160 | 2.0 | 0.0 | 0.00 | 0.00 | 0.00 | 44 | 1014.2 |
| 20260507213710 | 82 | 160 | 2.0 | 0.0 | 0.00 | 0.00 | 0.00 | 43 | 1014.2 |
| 20260507213703 | 86 | 269 | 2.0 | 6.0 | 0.00 | 0.00 | 0.00 | 42 | 1014.0 |
| 20260507213640 | 83 | 160 | 2.0 | 0.0 | 0.00 | 0.00 | 0.00 | 43 | 1014.2 |
| 20260507213616 | 83 | 160 | 2.0 | 0.0 | 0.00 | 0.00 | 0.00 | 42 | 1014.2 |
| 20260507213540 | 83 | 160 | 2.0 | 0.0 | 0.00 | 0.00 | 0.00 | 43 | 1014.2 |
| 20260507213510 | 83 | 160 | 2.0 | 0.0 | 0.00 | 0.00 | 0.00 | 43 | 1014.2 |
| 20260507213201 | 87 | 348 | 3.0 | 3.0 | 0.00 | 0.00 | 0.00 | 41 | 1014.0 |
| 20260507212859 | 82 | 83 | 2.0 | 0.0 | 0.00 | 0.00 | 0.00 | 43 | 1014.4 |
| 20260507212809 | 82 | 83 | 2.0 | 0.0 | 0.00 | 0.00 | 0.00 | 44 | 1014.4 |
| 20260507212739 | 81 | 83 | 2.0 | 0.0 | 0.00 | 0.00 | 0.00 | 44 | 1014.4 |
| 20260507212728 | 81 | 83 | 2.0 | 0.0 | 0.00 | 0.00 | 0.00 | 45 | 1014.4 |
| 20260507212657 | 87 | 306 | 2.0 | 4.0 | 0.00 | 0.00 | 0.00 | 42 | 1014.1 |
| 20260507212547 | 80 | 83 | 2.0 | 0.0 | 0.00 | 0.00 | 0.00 | 45 | 1014.4 |
| 20260507212511 | 80 | 83 | 2.0 | 0.0 | 0.00 | 0.00 | 0.00 | 45 | 1014.4 |
| 20260507212415 | 81 | 83 | 2.0 | 0.0 | 0.00 | 0.00 | 0.00 | 44 | 1014.4 |
| 20260507212240 | 81 | 83 | 2.0 | 0.0 | 0.00 | 0.00 | 0.00 | 44 | 1014.4 |
| 20260507212210 | 81 | 83 | 2.0 | 0.0 | 0.00 | 0.00 | 0.00 | 45 | 1014.4 |
| 20260507212154 | 87 | 284 | 2.0 | 4.0 | 0.00 | 0.00 | 0.00 | 42 | 1014.2 |
| 20260507211912 | 80 | 179 | 4.0 | 0.0 | 0.00 | 0.00 | 0.00 | 45 | 1014.2 |
| 20260507211835 | 80 | 179 | 4.0 | 0.0 | 0.00 | 0.00 | 0.00 | 45 | 1014.2 |
| 20260507211738 | 80 | 179 | 4.0 | 0.0 | 0.00 | 0.00 | 0.00 | 46 | 1014.2 |
| 20260507211655 | 80 | 179 | 4.0 | 0.0 | 0.00 | 0.00 | 0.00 | 45 | 1014.2 |
| 20260507211651 | 87 | 306 | 3.0 | 4.0 | 0.00 | 0.00 | 0.00 | 42 | 1014.2 |
| 20260507211612 | 80 | 179 | 4.0 | 0.0 | 0.00 | 0.00 | 0.00 | 45 | 1014.2 |
| 20260507211535 | 80 | 179 | 4.0 | 0.0 | 0.00 | 0.00 | 0.00 | 45 | 1014.2 |
| 20260507211451 | 80 | 179 | 4.0 | 0.0 | 0.00 | 0.00 | 0.00 | 45 | 1014.2 |
| 20260507211415 | 80 | 179 | 4.0 | 0.0 | 0.00 | 0.00 | 0.00 | 45 | 1014.2 |
| 20260507211351 | 80 | 179 | 4.0 | 0.0 | 0.00 | 0.00 | 0.00 | 46 | 1014.2 |
| 20260507211321 | 80 | 179 | 4.0 | 0.0 | 0.00 | 0.00 | 0.00 | 46 | 1014.2 |
| 20260507211251 | 80 | 179 | 4.0 | 0.0 | 0.00 | 0.00 | 0.00 | 45 | 1014.2 |
| 20260507211227 | 80 | 179 | 4.0 | 0.0 | 0.00 | 0.00 | 0.00 | 45 | 1014.2 |
| 20260507211203 | 80 | 179 | 4.0 | 0.0 | 0.00 | 0.00 | 0.00 | 46 | 1014.2 |
| 20260507211146 | 87 | 340 | 2.0 | 2.0 | 0.00 | 0.00 | 0.00 | 42 | 1014.2 |
| 20260507211132 | 80 | 179 | 4.0 | 6.0 | 0.00 | 0.00 | 0.00 | 46 | 1014.2 |
| 20260507210717 | 80 | 34 | 2.0 | 0.0 | 0.00 | 0.00 | 0.00 | 45 | 1014.8 |
| 20260507210644 | 87 | 325 | 1.0 | 3.0 | 0.00 | 0.00 | 0.00 | 42 | 1014.2 |
| 20260507210511 | 80 | 34 | 2.0 | 0.0 | 0.00 | 0.00 | 0.00 | 45 | 1014.8 |
| 20260507210447 | 80 | 34 | 2.0 | 0.0 | 0.00 | 0.00 | 0.00 | 46 | 1014.8 |
| 20260507210417 | 79 | 34 | 2.0 | 0.0 | 0.00 | 0.00 | 0.00 | 46 | 1014.8 |
| 20260507210354 | 80 | 34 | 2.0 | 0.0 | 0.00 | 0.00 | 0.00 | 45 | 1014.8 |
| 20260507210250 | 80 | 34 | 2.0 | 0.0 | 0.00 | 0.00 | 0.00 | 45 | 1014.8 |
| 20260507210220 | 80 | 34 | 2.0 | 0.0 | 0.00 | 0.00 | 0.00 | 44 | 1014.8 |
| 20260507210150 | 80 | 34 | 2.0 | 0.0 | 0.00 | 0.00 | 0.00 | 46 | 1014.8 |
| 20260507210140 | 87 | 220 | 4.0 | 4.0 | 0.00 | 0.00 | 0.00 | 41 | 1014.2 |
| 20260507210119 | 80 | 34 | 2.0 | 0.0 | 0.00 | 0.00 | 0.00 | 47 | 1014.8 |
| 20260507205905 | 80 | 34 | 2.0 | 3.0 | 0.00 | 0.00 | 0.00 | 46 | 1014.8 |
| 20260507205829 | 79 | 181 | 1.0 | 0.0 | 0.00 | 0.00 | 0.00 | 47 | 1014.8 |
| 20260507205746 | 79 | 181 | 1.0 | 0.0 | 0.00 | 0.00 | 0.00 | 47 | 1014.8 |
| 20260507205703 | 79 | 181 | 1.0 | 0.0 | 0.00 | 0.00 | 0.00 | 46 | 1014.8 |
| 20260507205637 | 87 | 278 | 1.0 | 4.0 | 0.00 | 0.00 | 0.00 | 42 | 1014.2 |
| 20260507205620 | 79 | 181 | 1.0 | 0.0 | 0.00 | 0.00 | 0.00 | 47 | 1014.8 |
| 20260507205230 | 79 | 181 | 1.0 | 0.0 | 0.00 | 0.00 | 0.00 | 46 | 1014.8 |
| 20260507205200 | 80 | 181 | 1.0 | 0.0 | 0.00 | 0.00 | 0.00 | 46 | 1014.8 |
| 20260507205134 | 87 | 60 | 1.0 | 3.0 | 0.00 | 0.00 | 0.00 | 42 | 1014.2 |
| 20260507205118 | 80 | 181 | 1.0 | 0.0 | 0.00 | 0.00 | 0.00 | 46 | 1014.8 |
| 20260507205048 | 80 | 181 | 1.0 | 0.0 | 0.00 | 0.00 | 0.00 | 47 | 1014.8 |
| 20260507205015 | 79 | 181 | 1.0 | 0.0 | 0.00 | 0.00 | 0.00 | 46 | 1014.8 |
| 20260507204938 | 79 | 181 | 1.0 | 0.0 | 0.00 | 0.00 | 0.00 | 46 | 1014.8 |
| 20260507204908 | 79 | 181 | 1.0 | 2.0 | 0.00 | 0.00 | 0.00 | 47 | 1014.8 |
| 20260507204837 | 79 | 99 | 1.0 | 0.0 | 0.00 | 0.00 | 0.00 | 47 | 1014.8 |
| 20260507204650 | 79 | 99 | 1.0 | 0.0 | 0.00 | 0.00 | 0.00 | 47 | 1014.8 |
| 20260507204630 | 87 | 297 | 3.0 | 4.0 | 0.00 | 0.00 | 0.00 | 42 | 1014.3 |
| 20260507204620 | 78 | 99 | 1.0 | 0.0 | 0.00 | 0.00 | 0.00 | 47 | 1014.8 |
| 20260507204550 | 78 | 99 | 1.0 | 0.0 | 0.00 | 0.00 | 0.00 | 48 | 1014.8 |
| 20260507204526 | 78 | 99 | 1.0 | 0.0 | 0.00 | 0.00 | 0.00 | 47 | 1014.8 |
| 20260507204502 | 78 | 99 | 1.0 | 0.0 | 0.00 | 0.00 | 0.00 | 48 | 1014.8 |
| 20260507204420 | 78 | 99 | 1.0 | 0.0 | 0.00 | 0.00 | 0.00 | 47 | 1014.8 |
| 20260507204200 | 79 | 99 | 1.0 | 0.0 | 0.00 | 0.00 | 0.00 | 46 | 1014.8 |
| 20260507204136 | 79 | 99 | 1.0 | 0.0 | 0.00 | 0.00 | 0.00 | 48 | 1014.8 |
| 20260507204128 | 86 | 288 | 1.0 | 5.0 | 0.00 | 0.00 | 0.00 | 42 | 1014.4 |
| 20260507204105 | 79 | 99 | 1.0 | 0.0 | 0.00 | 0.00 | 0.00 | 48 | 1014.8 |
| 20260507204035 | 79 | 99 | 1.0 | 0.0 | 0.00 | 0.00 | 0.00 | 47 | 1014.8 |
| 20260507203945 | 79 | 99 | 1.0 | 0.0 | 0.00 | 0.00 | 0.00 | 47 | 1014.8 |
| 20260507203856 | 79 | 99 | 1.0 | 0.0 | 0.00 | 0.00 | 0.00 | 47 | 1014.8 |
| 20260507203826 | 79 | 99 | 1.0 | 1.0 | 0.00 | 0.00 | 0.00 | 48 | 1014.8 |
| 20260507203756 | 79 | 145 | 5.0 | 0.0 | 0.00 | 0.00 | 0.00 | 47 | 1015.0 |
| 20260507203713 | 79 | 145 | 5.0 | 0.0 | 0.00 | 0.00 | 0.00 | 47 | 1015.0 |
| 20260507203642 | 79 | 145 | 5.0 | 0.0 | 0.00 | 0.00 | 0.00 | 48 | 1015.0 |
| 20260507203625 | 85 | 211 | 2.0 | 5.0 | 0.00 | 0.00 | 0.00 | 42 | 1014.3 |
| 20260507203559 | 78 | 145 | 5.0 | 0.0 | 0.00 | 0.00 | 0.00 | 48 | 1015.0 |
| 20260507203301 | 78 | 145 | 5.0 | 0.0 | 0.00 | 0.00 | 0.00 | 49 | 1015.0 |
| 20260507203123 | 84 | 213 | 3.0 | 5.0 | 0.00 | 0.00 | 0.00 | 42 | 1014.7 |
| 20260507203101 | 78 | 145 | 5.0 | 0.0 | 0.00 | 0.00 | 0.00 | 47 | 1015.0 |
| 20260507203031 | 78 | 145 | 5.0 | 0.0 | 0.00 | 0.00 | 0.00 | 48 | 1015.0 |
| 20260507202954 | 78 | 145 | 5.0 | 0.0 | 0.00 | 0.00 | 0.00 | 48 | 1015.0 |
| 20260507202930 | 78 | 145 | 5.0 | 0.0 | 0.00 | 0.00 | 0.00 | 48 | 1015.0 |
| 20260507202900 | 78 | 145 | 5.0 | 0.0 | 0.00 | 0.00 | 0.00 | 49 | 1015.0 |
| 20260507202830 | 77 | 145 | 5.0 | 0.0 | 0.00 | 0.00 | 0.00 | 49 | 1015.0 |
| 20260507202800 | 77 | 145 | 5.0 | 0.0 | 0.00 | 0.00 | 0.00 | 48 | 1015.0 |
| 20260507202736 | 78 | 145 | 5.0 | 7.0 | 0.00 | 0.00 | 0.00 | 48 | 1015.0 |
| 20260507202659 | 77 | 30 | 2.0 | 0.0 | 0.00 | 0.00 | 0.00 | 48 | 1015.0 |
| 20260507202619 | 84 | 184 | 4.0 | 8.0 | 0.00 | 0.00 | 0.00 | 42 | 1014.5 |
| 20260507202609 | 77 | 30 | 2.0 | 0.0 | 0.00 | 0.00 | 0.00 | 48 | 1015.0 |
| 20260507202526 | 77 | 30 | 2.0 | 0.0 | 0.00 | 0.00 | 0.00 | 49 | 1015.0 |
| 20260507202456 | 77 | 30 | 2.0 | 0.0 | 0.00 | 0.00 | 0.00 | 48 | 1015.0 |
| 20260507202301 | 79 | 30 | 2.0 | 0.0 | 0.00 | 0.00 | 0.00 | 47 | 1015.0 |
| 20260507202231 | 79 | 30 | 2.0 | 0.0 | 0.00 | 0.00 | 0.00 | 48 | 1015.0 |
| 20260507202201 | 78 | 30 | 2.0 | 0.0 | 0.00 | 0.00 | 0.00 | 48 | 1015.0 |
| 20260507202115 | 83 | 228 | 3.0 | 6.0 | 0.00 | 0.00 | 0.00 | 42 | 1014.5 |
| 20260507202111 | 78 | 30 | 2.0 | 0.0 | 0.00 | 0.00 | 0.00 | 49 | 1015.0 |
| 20260507202041 | 77 | 30 | 2.0 | 0.0 | 0.00 | 0.00 | 0.00 | 50 | 1015.0 |
| 20260507202009 | 77 | 30 | 2.0 | 0.0 | 0.00 | 0.00 | 0.00 | 48 | 1015.0 |
| 20260507201802 | 78 | 30 | 2.0 | 0.0 | 0.00 | 0.00 | 0.00 | 48 | 1015.0 |
| 20260507201739 | 77 | 30 | 2.0 | 2.0 | 0.00 | 0.00 | 0.00 | 48 | 1015.0 |
| 20260507201709 | 77 | 154 | 1.0 | 0.0 | 0.00 | 0.00 | 0.00 | 48 | 1015.0 |
| 20260507201645 | 77 | 154 | 1.0 | 0.0 | 0.00 | 0.00 | 0.00 | 49 | 1015.0 |
| 20260507201621 | 77 | 154 | 1.0 | 0.0 | 0.00 | 0.00 | 0.00 | 50 | 1015.0 |
| 20260507201610 | 84 | 70 | 5.0 | 5.0 | 0.00 | 0.00 | 0.00 | 41 | 1014.7 |
| 20260507201551 | 77 | 154 | 1.0 | 0.0 | 0.00 | 0.00 | 0.00 | 49 | 1015.0 |
| 20260507201357 | 77 | 154 | 1.0 | 0.0 | 0.00 | 0.00 | 0.00 | 48 | 1015.0 |
| 20260507201326 | 78 | 154 | 1.0 | 0.0 | 0.00 | 0.00 | 0.00 | 48 | 1015.0 |
| 20260507201256 | 78 | 154 | 1.0 | 0.0 | 0.00 | 0.00 | 0.00 | 47 | 1015.0 |
| 20260507201159 | 79 | 154 | 1.0 | 0.0 | 0.00 | 0.00 | 0.00 | 47 | 1015.0 |
| 20260507201135 | 79 | 154 | 1.0 | 0.0 | 0.00 | 0.00 | 0.00 | 48 | 1015.0 |
| 20260507201112 | 79 | 154 | 1.0 | 0.0 | 0.00 | 0.00 | 0.00 | 47 | 1015.0 |
| 20260507201107 | 84 | 140 | 0.0 | 2.0 | 0.00 | 0.00 | 0.00 | 42 | 1014.7 |
| 20260507201048 | 79 | 154 | 1.0 | 0.0 | 0.00 | 0.00 | 0.00 | 48 | 1015.0 |
| 20260507200743 | 79 | 154 | 1.0 | 0.0 | 0.00 | 0.00 | 0.00 | 48 | 1015.0 |
| 20260507200713 | 79 | 154 | 1.0 | 0.0 | 0.00 | 0.00 | 0.00 | 47 | 1015.0 |
| 20260507200643 | 79 | 154 | 1.0 | 1.0 | 0.00 | 0.00 | 0.00 | 48 | 1015.0 |
| 20260507200606 | 79 | 81 | 0.0 | 0.0 | 0.00 | 0.00 | 0.00 | 48 | 1015.1 |
| 20260507200602 | 84 | 207 | 4.0 | 6.0 | 0.00 | 0.00 | 0.00 | 41 | 1014.8 |
| 20260507200523 | 79 | 81 | 0.0 | 0.0 | 0.00 | 0.00 | 0.00 | 47 | 1015.1 |
| 20260507200453 | 79 | 81 | 0.0 | 0.0 | 0.00 | 0.00 | 0.00 | 46 | 1015.1 |
| 20260507200423 | 79 | 81 | 0.0 | 0.0 | 0.00 | 0.00 | 0.00 | 47 | 1015.1 |
| 20260507200353 | 79 | 81 | 0.0 | 0.0 | 0.00 | 0.00 | 0.00 | 48 | 1015.1 |
| 20260507200310 | 79 | 81 | 0.0 | 0.0 | 0.00 | 0.00 | 0.00 | 47 | 1015.1 |
| 20260507200246 | 79 | 81 | 0.0 | 0.0 | 0.00 | 0.00 | 0.00 | 47 | 1015.1 |
| 20260507200215 | 78 | 81 | 0.0 | 0.0 | 0.00 | 0.00 | 0.00 | 49 | 1015.1 |
| 20260507200145 | 78 | 81 | 0.0 | 0.0 | 0.00 | 0.00 | 0.00 | 50 | 1015.1 |
| 20260507200109 | 77 | 81 | 0.0 | 0.0 | 0.00 | 0.00 | 0.00 | 50 | 1015.1 |
| 20260507200059 | 83 | 246 | 3.0 | 3.0 | 0.00 | 0.00 | 0.00 | 43 | 1014.9 |
| 20260507195940 | 78 | 81 | 0.0 | 0.0 | 0.00 | 0.00 | 0.00 | 49 | 1015.1 |
| 20260507195910 | 77 | 81 | 0.0 | 0.0 | 0.00 | 0.00 | 0.00 | 49 | 1015.1 |
| 20260507195710 | 77 | 81 | 0.0 | 0.0 | 0.00 | 0.00 | 0.00 | 50 | 1015.1 |
| 20260507195640 | 77 | 81 | 0.0 | 2.0 | 0.00 | 0.00 | 0.00 | 49 | 1015.1 |
| 20260507195604 | 77 | 177 | 1.0 | 0.0 | 0.00 | 0.00 | 0.00 | 49 | 1015.2 |
| 20260507195556 | 82 | 183 | 0.0 | 7.0 | 0.00 | 0.00 | 0.00 | 43 | 1014.8 |
| 20260507195053 | 81 | 139 | 4.0 | 8.0 | 0.00 | 0.00 | 0.00 | 45 | 1014.9 |
| 20260507195031 | 76 | 177 | 1.0 | 0.0 | 0.00 | 0.00 | 0.00 | 51 | 1015.2 |
| 20260507194935 | 76 | 177 | 1.0 | 0.0 | 0.00 | 0.00 | 0.00 | 50 | 1015.2 |
| 20260507194845 | 76 | 177 | 1.0 | 0.0 | 0.00 | 0.00 | 0.00 | 50 | 1015.2 |
| 20260507194815 | 76 | 177 | 1.0 | 0.0 | 0.00 | 0.00 | 0.00 | 50 | 1015.2 |
| 20260507194745 | 75 | 177 | 1.0 | 0.0 | 0.00 | 0.00 | 0.00 | 51 | 1015.2 |
| 20260507194702 | 75 | 177 | 1.0 | 0.0 | 0.00 | 0.00 | 0.00 | 51 | 1015.2 |
| 20260507194631 | 75 | 177 | 1.0 | 2.0 | 0.00 | 0.00 | 0.00 | 51 | 1015.2 |
| 20260507194549 | 81 | 227 | 3.0 | 11.0 | 0.00 | 0.00 | 0.00 | 45 | 1015.1 |
| 20260507194418 | 75 | 0 | 2.0 | 0.0 | 0.00 | 0.00 | 0.00 | 51 | 1015.2 |
| 20260507194355 | 75 | 0 | 2.0 | 0.0 | 0.00 | 0.00 | 0.00 | 50 | 1015.2 |
| 20260507194325 | 75 | 0 | 2.0 | 0.0 | 0.00 | 0.00 | 0.00 | 51 | 1015.2 |
| 20260507194241 | 75 | 0 | 2.0 | 0.0 | 0.00 | 0.00 | 0.00 | 51 | 1015.2 |
| 20260507194158 | 76 | 0 | 2.0 | 0.0 | 0.00 | 0.00 | 0.00 | 51 | 1015.2 |
| 20260507194115 | 76 | 0 | 2.0 | 0.0 | 0.00 | 0.00 | 0.00 | 51 | 1015.2 |
| 20260507194057 | 76 | 0 | 2.0 | 0.0 | 0.00 | 0.00 | 0.00 | 50 | 1015.2 |
| 20260507194045 | 82 | 27 | 2.0 | 4.0 | 0.00 | 0.00 | 0.00 | 43 | 1015.0 |
| 20260507194027 | 75 | 0 | 2.0 | 0.0 | 0.00 | 0.00 | 0.00 | 51 | 1015.2 |
| 20260507194004 | 75 | 0 | 2.0 | 0.0 | 0.00 | 0.00 | 0.00 | 51 | 1015.2 |
| 20260507193933 | 76 | 0 | 2.0 | 0.0 | 0.00 | 0.00 | 0.00 | 51 | 1015.2 |
| 20260507193850 | 76 | 0 | 2.0 | 0.0 | 0.00 | 0.00 | 0.00 | 51 | 1015.2 |
| 20260507193807 | 75 | 0 | 2.0 | 0.0 | 0.00 | 0.00 | 0.00 | 51 | 1015.2 |
| 20260507193737 | 75 | 0 | 2.0 | 2.0 | 0.00 | 0.00 | 0.00 | 51 | 1015.2 |
| 20260507193656 | 75 | 160 | 3.0 | 0.0 | 0.00 | 0.00 | 0.00 | 51 | 1015.4 |
| 20260507193633 | 75 | 160 | 3.0 | 0.0 | 0.00 | 0.00 | 0.00 | 50 | 1015.4 |
| 20260507193543 | 82 | 255 | 3.0 | 8.0 | 0.00 | 0.00 | 0.00 | 43 | 1014.9 |
| 20260507193445 | 76 | 160 | 3.0 | 0.0 | 0.00 | 0.00 | 0.00 | 50 | 1015.4 |
| 20260507193251 | 75 | 160 | 3.0 | 0.0 | 0.00 | 0.00 | 0.00 | 50 | 1015.4 |
| 20260507193155 | 75 | 160 | 3.0 | 0.0 | 0.00 | 0.00 | 0.00 | 51 | 1015.4 |
| 20260507193105 | 75 | 160 | 3.0 | 0.0 | 0.00 | 0.00 | 0.00 | 52 | 1015.4 |
| 20260507193040 | 83 | 191 | 2.0 | 2.0 | 0.00 | 0.00 | 0.00 | 43 | 1015.1 |
| 20260507193028 | 75 | 160 | 3.0 | 0.0 | 0.00 | 0.00 | 0.00 | 52 | 1015.4 |
| 20260507193005 | 75 | 160 | 3.0 | 0.0 | 0.00 | 0.00 | 0.00 | 51 | 1015.4 |
| 20260507192941 | 75 | 160 | 3.0 | 0.0 | 0.00 | 0.00 | 0.00 | 52 | 1015.4 |
| 20260507192845 | 75 | 160 | 3.0 | 0.0 | 0.00 | 0.00 | 0.00 | 51 | 1015.4 |
| 20260507192815 | 75 | 160 | 3.0 | 5.0 | 0.00 | 0.00 | 0.00 | 51 | 1015.4 |
| 20260507192548 | 75 | 96 | 2.0 | 0.0 | 0.00 | 0.00 | 0.00 | 51 | 1015.5 |
| 20260507192536 | 80 | 41 | 2.0 | 4.0 | 0.00 | 0.00 | 0.00 | 45 | 1015.2 |
| 20260507192355 | 75 | 96 | 2.0 | 0.0 | 0.00 | 0.00 | 0.00 | 53 | 1015.5 |
| 20260507192200 | 75 | 96 | 2.0 | 0.0 | 0.00 | 0.00 | 0.00 | 51 | 1015.5 |
| 20260507192106 | 75 | 96 | 2.0 | 0.0 | 0.00 | 0.00 | 0.00 | 52 | 1015.5 |
| 20260507192043 | 75 | 96 | 2.0 | 0.0 | 0.00 | 0.00 | 0.00 | 51 | 1015.5 |
| 20260507192033 | 80 | 123 | 2.0 | 3.0 | 0.00 | 0.00 | 0.00 | 46 | 1015.4 |
| 20260507192019 | 75 | 96 | 2.0 | 0.0 | 0.00 | 0.00 | 0.00 | 52 | 1015.5 |
| 20260507191819 | 74 | 96 | 2.0 | 0.0 | 0.00 | 0.00 | 0.00 | 53 | 1015.5 |
| 20260507191729 | 75 | 96 | 2.0 | 0.0 | 0.00 | 0.00 | 0.00 | 52 | 1015.5 |
| 20260507191646 | 75 | 96 | 2.0 | 0.0 | 0.00 | 0.00 | 0.00 | 51 | 1015.5 |
| 20260507191616 | 75 | 96 | 2.0 | 2.0 | 0.00 | 0.00 | 0.00 | 52 | 1015.5 |
| 20260507191546 | 75 | 312 | 2.0 | 0.0 | 0.00 | 0.00 | 0.00 | 52 | 1015.4 |
| 20260507191528 | 80 | 197 | 6.0 | 8.0 | 0.00 | 0.00 | 0.00 | 45 | 1015.4 |
| 20260507191510 | 75 | 312 | 2.0 | 0.0 | 0.00 | 0.00 | 0.00 | 52 | 1015.4 |
| 20260507191446 | 75 | 312 | 2.0 | 0.0 | 0.00 | 0.00 | 0.00 | 51 | 1015.4 |
| 20260507191416 | 74 | 312 | 2.0 | 0.0 | 0.00 | 0.00 | 0.00 | 52 | 1015.4 |
| 20260507191353 | 74 | 312 | 2.0 | 0.0 | 0.00 | 0.00 | 0.00 | 53 | 1015.4 |
| 20260507191323 | 74 | 312 | 2.0 | 0.0 | 0.00 | 0.00 | 0.00 | 52 | 1015.4 |
| 20260507191253 | 74 | 312 | 2.0 | 0.0 | 0.00 | 0.00 | 0.00 | 51 | 1015.4 |
| 20260507191229 | 75 | 312 | 2.0 | 0.0 | 0.00 | 0.00 | 0.00 | 52 | 1015.4 |
| 20260507191205 | 75 | 312 | 2.0 | 0.0 | 0.00 | 0.00 | 0.00 | 52 | 1015.4 |
| 20260507191135 | 75 | 312 | 2.0 | 0.0 | 0.00 | 0.00 | 0.00 | 51 | 1015.4 |
| 20260507191026 | 80 | 159 | 4.0 | 6.0 | 0.00 | 0.00 | 0.00 | 46 | 1015.5 |
| 20260507190941 | 76 | 312 | 2.0 | 0.0 | 0.00 | 0.00 | 0.00 | 51 | 1015.4 |
| 20260507190911 | 76 | 312 | 2.0 | 0.0 | 0.00 | 0.00 | 0.00 | 50 | 1015.4 |
| 20260507190847 | 76 | 312 | 2.0 | 0.0 | 0.00 | 0.00 | 0.00 | 50 | 1015.4 |
| 20260507190824 | 76 | 312 | 2.0 | 0.0 | 0.00 | 0.00 | 0.00 | 49 | 1015.4 |
| 20260507190728 | 76 | 312 | 2.0 | 0.0 | 0.00 | 0.00 | 0.00 | 50 | 1015.4 |
| 20260507190534 | 76 | 11 | 1.0 | 0.0 | 0.00 | 0.00 | 0.00 | 50 | 1015.5 |
| 20260507190523 | 80 | 228 | 2.0 | 3.0 | 0.00 | 0.00 | 0.00 | 45 | 1015.5 |
| 20260507190252 | 75 | 11 | 1.0 | 0.0 | 0.00 | 0.00 | 0.00 | 51 | 1015.5 |
| 20260507190156 | 74 | 11 | 1.0 | 0.0 | 0.00 | 0.00 | 0.00 | 52 | 1015.5 |
| 20260507190120 | 74 | 11 | 1.0 | 0.0 | 0.00 | 0.00 | 0.00 | 52 | 1015.5 |
| 20260507190030 | 75 | 11 | 1.0 | 0.0 | 0.00 | 0.00 | 0.00 | 52 | 1015.5 |
| 20260507190022 | 80 | 15 | 2.0 | 4.0 | 0.00 | 0.00 | 0.00 | 46 | 1015.5 |
| 20260507185836 | 74 | 11 | 1.0 | 0.0 | 0.00 | 0.00 | 0.00 | 53 | 1015.5 |
| 20260507185812 | 74 | 11 | 1.0 | 0.0 | 0.00 | 0.00 | 0.00 | 53 | 1015.5 |
| 20260507185748 | 74 | 11 | 1.0 | 0.0 | 0.00 | 0.00 | 0.00 | 52 | 1015.5 |
| 20260507185705 | 74 | 11 | 1.0 | 0.0 | 0.00 | 0.00 | 0.00 | 52 | 1015.5 |
| 20260507185635 | 74 | 11 | 1.0 | 0.0 | 0.00 | 0.00 | 0.00 | 52 | 1015.5 |
| 20260507185605 | 74 | 11 | 1.0 | 3.0 | 0.00 | 0.00 | 0.00 | 52 | 1015.5 |
| 20260507185528 | 74 | 184 | 2.0 | 0.0 | 0.00 | 0.00 | 0.00 | 52 | 1015.6 |
| 20260507185519 | 79 | 241 | 2.0 | 6.0 | 0.00 | 0.00 | 0.00 | 46 | 1015.7 |
| 20260507185505 | 75 | 184 | 2.0 | 0.0 | 0.00 | 0.00 | 0.00 | 51 | 1015.6 |
| 20260507185435 | 75 | 184 | 2.0 | 0.0 | 0.00 | 0.00 | 0.00 | 52 | 1015.6 |
| 20260507185337 | 74 | 184 | 2.0 | 0.0 | 0.00 | 0.00 | 0.00 | 52 | 1015.6 |
| 20260507185306 | 73 | 184 | 2.0 | 0.0 | 0.00 | 0.00 | 0.00 | 52 | 1015.6 |
| 20260507185236 | 73 | 184 | 2.0 | 0.0 | 0.00 | 0.00 | 0.00 | 53 | 1015.6 |
| 20260507185159 | 73 | 184 | 2.0 | 0.0 | 0.00 | 0.00 | 0.00 | 53 | 1015.6 |
| 20260507185109 | 73 | 184 | 2.0 | 0.0 | 0.00 | 0.00 | 0.00 | 53 | 1015.6 |
| 20260507185046 | 73 | 184 | 2.0 | 0.0 | 0.00 | 0.00 | 0.00 | 53 | 1015.6 |
| 20260507185020 | 73 | 184 | 2.0 | 0.0 | 0.00 | 0.00 | 0.00 | 54 | 1015.6 |
| 20260507185015 | 79 | 69 | 2.0 | 3.0 | 0.00 | 0.00 | 0.00 | 47 | 1015.8 |
| 20260507184846 | 73 | 184 | 2.0 | 0.0 | 0.00 | 0.00 | 0.00 | 53 | 1015.6 |
| 20260507184750 | 73 | 184 | 2.0 | 0.0 | 0.00 | 0.00 | 0.00 | 54 | 1015.6 |
| 20260507184720 | 73 | 184 | 2.0 | 4.0 | 0.00 | 0.00 | 0.00 | 54 | 1015.6 |
| 20260507184649 | 73 | 148 | 1.0 | 0.0 | 0.00 | 0.00 | 0.00 | 53 | 1015.5 |
| 20260507184515 | 73 | 148 | 1.0 | 0.0 | 0.00 | 0.00 | 0.00 | 54 | 1015.5 |
| 20260507184452 | 73 | 148 | 1.0 | 0.0 | 0.00 | 0.00 | 0.00 | 54 | 1015.5 |
| 20260507184421 | 73 | 148 | 1.0 | 0.0 | 0.00 | 0.00 | 0.00 | 55 | 1015.5 |
| 20260507184214 | 72 | 148 | 1.0 | 0.0 | 0.00 | 0.00 | 0.00 | 56 | 1015.5 |
| 20260507184144 | 72 | 148 | 1.0 | 0.0 | 0.00 | 0.00 | 0.00 | 55 | 1015.5 |
| 20260507184114 | 72 | 148 | 1.0 | 0.0 | 0.00 | 0.00 | 0.00 | 54 | 1015.5 |
| 20260507184024 | 72 | 148 | 1.0 | 0.0 | 0.00 | 0.00 | 0.00 | 54 | 1015.5 |
| 20260507184012 | 79 | 106 | 2.0 | 4.0 | 0.00 | 0.00 | 0.00 | 47 | 1015.7 |
| 20260507183726 | 74 | 148 | 1.0 | 0.0 | 0.00 | 0.00 | 0.00 | 54 | 1015.5 |
| 20260507183636 | 73 | 148 | 1.0 | 0.0 | 0.00 | 0.00 | 0.00 | 54 | 1015.5 |
| 20260507183603 | 73 | 148 | 1.0 | 3.0 | 0.00 | 0.00 | 0.00 | 54 | 1015.5 |
| 20260507183533 | 73 | 142 | 1.0 | 0.0 | 0.00 | 0.00 | 0.00 | 53 | 1015.6 |
| 20260507183510 | 73 | 142 | 1.0 | 0.0 | 0.00 | 0.00 | 0.00 | 53 | 1015.6 |
| 20260507183507 | 78 | 44 | 2.0 | 3.0 | 0.00 | 0.00 | 0.00 | 48 | 1015.9 |
| 20260507183440 | 73 | 142 | 1.0 | 0.0 | 0.00 | 0.00 | 0.00 | 54 | 1015.6 |
| 20260507183350 | 72 | 142 | 1.0 | 0.0 | 0.00 | 0.00 | 0.00 | 55 | 1015.6 |
| 20260507183320 | 72 | 142 | 1.0 | 0.0 | 0.00 | 0.00 | 0.00 | 55 | 1015.6 |
| 20260507183256 | 72 | 142 | 1.0 | 0.0 | 0.00 | 0.00 | 0.00 | 56 | 1015.6 |
| 20260507183213 | 72 | 142 | 1.0 | 0.0 | 0.00 | 0.00 | 0.00 | 55 | 1015.6 |
| 20260507183130 | 72 | 142 | 1.0 | 0.0 | 0.00 | 0.00 | 0.00 | 54 | 1015.6 |
| 20260507183005 | 77 | 312 | 0.0 | 3.0 | 0.00 | 0.00 | 0.00 | 48 | 1015.8 |
| 20260507182929 | 73 | 142 | 1.0 | 0.0 | 0.00 | 0.00 | 0.00 | 53 | 1015.6 |
| 20260507182906 | 73 | 142 | 1.0 | 0.0 | 0.00 | 0.00 | 0.00 | 54 | 1015.6 |
| 20260507182842 | 73 | 142 | 1.0 | 0.0 | 0.00 | 0.00 | 0.00 | 53 | 1015.6 |
| 20260507182701 | 73 | 142 | 1.0 | 2.0 | 0.00 | 0.00 | 0.00 | 54 | 1015.6 |
| 20260507182625 | 72 | 163 | 1.0 | 0.0 | 0.00 | 0.00 | 0.00 | 55 | 1015.5 |
| 20260507182535 | 72 | 163 | 1.0 | 0.0 | 0.00 | 0.00 | 0.00 | 56 | 1015.5 |
| 20260507182511 | 71 | 163 | 1.0 | 0.0 | 0.00 | 0.00 | 0.00 | 56 | 1015.5 |
| 20260507182500 | 78 | 128 | 2.0 | 4.0 | 0.00 | 0.00 | 0.00 | 48 | 1015.8 |
| 20260507182245 | 72 | 163 | 1.0 | 0.0 | 0.00 | 0.00 | 0.00 | 55 | 1015.5 |
| 20260507182208 | 72 | 163 | 1.0 | 0.0 | 0.00 | 0.00 | 0.00 | 55 | 1015.5 |
| 20260507182125 | 72 | 163 | 1.0 | 0.0 | 0.00 | 0.00 | 0.00 | 55 | 1015.5 |
| 20260507182108 | 72 | 163 | 1.0 | 0.0 | 0.00 | 0.00 | 0.00 | 54 | 1015.5 |
| 20260507181956 | 77 | 89 | 0.0 | 4.0 | 0.00 | 0.00 | 0.00 | 49 | 1015.9 |
| 20260507181933 | 72 | 163 | 1.0 | 0.0 | 0.00 | 0.00 | 0.00 | 55 | 1015.5 |
| 20260507181902 | 72 | 163 | 1.0 | 0.0 | 0.00 | 0.00 | 0.00 | 56 | 1015.5 |
| 20260507181831 | 72 | 163 | 1.0 | 0.0 | 0.00 | 0.00 | 0.00 | 56 | 1015.5 |
| 20260507181808 | 72 | 163 | 1.0 | 0.0 | 0.00 | 0.00 | 0.00 | 55 | 1015.5 |
| 20260507181542 | 72 | 108 | 2.0 | 0.0 | 0.00 | 0.00 | 0.00 | 56 | 1015.6 |
| 20260507181458 | 72 | 108 | 2.0 | 0.0 | 0.00 | 0.00 | 0.00 | 55 | 1015.6 |
| 20260507181453 | 79 | 137 | 6.0 | 6.0 | 0.00 | 0.00 | 0.00 | 47 | 1015.8 |
| 20260507181435 | 72 | 108 | 2.0 | 0.0 | 0.00 | 0.00 | 0.00 | 55 | 1015.6 |
| 20260507181411 | 73 | 108 | 2.0 | 0.0 | 0.00 | 0.00 | 0.00 | 55 | 1015.6 |
| 20260507181335 | 72 | 108 | 2.0 | 0.0 | 0.00 | 0.00 | 0.00 | 55 | 1015.6 |
| 20260507181121 | 72 | 108 | 2.0 | 0.0 | 0.00 | 0.00 | 0.00 | 55 | 1015.6 |
| 20260507180950 | 79 | 151 | 0.0 | 4.0 | 0.00 | 0.00 | 0.00 | 49 | 1015.9 |
| 20260507180854 | 71 | 108 | 2.0 | 0.0 | 0.00 | 0.00 | 0.00 | 56 | 1015.6 |
| 20260507180824 | 71 | 108 | 2.0 | 0.0 | 0.00 | 0.00 | 0.00 | 57 | 1015.6 |
| 20260507180755 | 71 | 108 | 2.0 | 0.0 | 0.00 | 0.00 | 0.00 | 57 | 1015.6 |
| 20260507180724 | 70 | 108 | 2.0 | 0.0 | 0.00 | 0.00 | 0.00 | 57 | 1015.6 |
| 20260507180655 | 70 | 108 | 2.0 | 4.0 | 0.00 | 0.00 | 0.00 | 57 | 1015.6 |
| 20260507180618 | 71 | 91 | 2.0 | 0.0 | 0.00 | 0.00 | 0.00 | 57 | 1015.7 |
| 20260507180601 | 71 | 91 | 2.0 | 0.0 | 0.00 | 0.00 | 0.00 | 56 | 1015.7 |
| 20260507180543 | 72 | 91 | 2.0 | 0.0 | 0.00 | 0.00 | 0.00 | 56 | 1015.7 |
| 20260507180500 | 71 | 91 | 2.0 | 0.0 | 0.00 | 0.00 | 0.00 | 56 | 1015.7 |
| 20260507180447 | 78 | 17 | 1.0 | 5.0 | 0.00 | 0.00 | 0.00 | 50 | 1015.9 |
| 20260507180305 | 71 | 91 | 2.0 | 0.0 | 0.00 | 0.00 | 0.00 | 57 | 1015.7 |
| 20260507180222 | 71 | 91 | 2.0 | 0.0 | 0.00 | 0.00 | 0.00 | 57 | 1015.7 |
| 20260507180120 | 71 | 91 | 2.0 | 0.0 | 0.00 | 0.00 | 0.00 | 56 | 1015.7 |
| 20260507180008 | 71 | 91 | 2.0 | 0.0 | 0.00 | 0.00 | 0.00 | 57 | 1015.7 |
| 20260507175943 | 77 | 155 | 0.0 | 4.0 | 0.00 | 0.00 | 0.00 | 49 | 1015.9 |
| 20260507175925 | 70 | 91 | 2.0 | 0.0 | 0.00 | 0.00 | 0.00 | 57 | 1015.7 |
| 20260507175842 | 70 | 91 | 2.0 | 0.0 | 0.00 | 0.00 | 0.00 | 57 | 1015.7 |
| 20260507175818 | 70 | 91 | 2.0 | 0.0 | 0.00 | 0.00 | 0.00 | 57 | 1015.7 |
| 20260507175748 | 70 | 91 | 2.0 | 0.0 | 0.00 | 0.00 | 0.00 | 59 | 1015.7 |
| 20260507175718 | 69 | 91 | 2.0 | 2.0 | 0.00 | 0.00 | 0.00 | 60 | 1015.7 |
| 20260507175641 | 69 | 153 | 2.0 | 0.0 | 0.00 | 0.00 | 0.00 | 59 | 1015.6 |
| 20260507175552 | 69 | 153 | 2.0 | 0.0 | 0.00 | 0.00 | 0.00 | 60 | 1015.6 |
| 20260507175502 | 69 | 153 | 2.0 | 0.0 | 0.00 | 0.00 | 0.00 | 60 | 1015.6 |
| 20260507175439 | 76 | 228 | 1.0 | 4.0 | 0.00 | 0.00 | 0.00 | 50 | 1015.8 |
| 20260507175408 | 70 | 153 | 2.0 | 0.0 | 0.00 | 0.00 | 0.00 | 58 | 1015.6 |
| 20260507175318 | 70 | 153 | 2.0 | 0.0 | 0.00 | 0.00 | 0.00 | 58 | 1015.6 |
| 20260507175248 | 69 | 153 | 2.0 | 0.0 | 0.00 | 0.00 | 0.00 | 59 | 1015.6 |
| 20260507175218 | 70 | 153 | 2.0 | 0.0 | 0.00 | 0.00 | 0.00 | 58 | 1015.6 |
| 20260507175148 | 70 | 153 | 2.0 | 0.0 | 0.00 | 0.00 | 0.00 | 58 | 1015.6 |
| 20260507175116 | 70 | 153 | 2.0 | 0.0 | 0.00 | 0.00 | 0.00 | 59 | 1015.6 |
| 20260507175017 | 69 | 153 | 2.0 | 0.0 | 0.00 | 0.00 | 0.00 | 60 | 1015.6 |
| 20260507174948 | 69 | 153 | 2.0 | 0.0 | 0.00 | 0.00 | 0.00 | 60 | 1015.6 |
| 20260507174937 | 75 | 149 | 2.0 | 5.0 | 0.00 | 0.00 | 0.00 | 51 | 1016.2 |
| 20260507174924 | 69 | 153 | 2.0 | 0.0 | 0.00 | 0.00 | 0.00 | 60 | 1015.6 |
| 20260507174854 | 69 | 153 | 2.0 | 0.0 | 0.00 | 0.00 | 0.00 | 59 | 1015.6 |
| 20260507174824 | 69 | 153 | 2.0 | 3.0 | 0.00 | 0.00 | 0.00 | 60 | 1015.6 |
| 20260507174754 | 69 | 89 | 0.0 | 0.0 | 0.00 | 0.00 | 0.00 | 59 | 1015.7 |
| 20260507174717 | 70 | 89 | 0.0 | 0.0 | 0.00 | 0.00 | 0.00 | 59 | 1015.7 |
| 20260507174641 | 69 | 89 | 0.0 | 0.0 | 0.00 | 0.00 | 0.00 | 60 | 1015.7 |
| 20260507174617 | 69 | 89 | 0.0 | 0.0 | 0.00 | 0.00 | 0.00 | 59 | 1015.7 |
| 20260507174540 | 69 | 89 | 0.0 | 0.0 | 0.00 | 0.00 | 0.00 | 60 | 1015.7 |
| 20260507174434 | 76 | 215 | 3.0 | 4.0 | 0.00 | 0.00 | 0.00 | 51 | 1015.9 |
| 20260507174246 | 70 | 89 | 0.0 | 0.0 | 0.00 | 0.00 | 0.00 | 59 | 1015.7 |
| 20260507174156 | 69 | 89 | 0.0 | 0.0 | 0.00 | 0.00 | 0.00 | 59 | 1015.7 |
| 20260507174132 | 69 | 89 | 0.0 | 0.0 | 0.00 | 0.00 | 0.00 | 59 | 1015.7 |
| 20260507173951 | 69 | 89 | 0.0 | 0.0 | 0.00 | 0.00 | 0.00 | 61 | 1015.7 |
| 20260507173932 | 75 | 38 | 2.0 | 3.0 | 0.00 | 0.00 | 0.00 | 51 | 1015.9 |
| 20260507173921 | 69 | 89 | 0.0 | 0.0 | 0.00 | 0.00 | 0.00 | 59 | 1015.7 |
| 20260507173714 | 69 | 186 | 0.0 | 0.0 | 0.00 | 0.00 | 0.00 | 60 | 1015.7 |
| 20260507173514 | 68 | 186 | 0.0 | 0.0 | 0.00 | 0.00 | 0.00 | 61 | 1015.7 |
| 20260507173436 | 68 | 186 | 0.0 | 0.0 | 0.00 | 0.00 | 0.00 | 61 | 1015.7 |
| 20260507173428 | 75 | 141 | 2.0 | 4.0 | 0.00 | 0.00 | 0.00 | 51 | 1016.0 |
| 20260507173405 | 68 | 186 | 0.0 | 0.0 | 0.00 | 0.00 | 0.00 | 61 | 1015.7 |
| 20260507173341 | 68 | 186 | 0.0 | 0.0 | 0.00 | 0.00 | 0.00 | 60 | 1015.7 |
| 20260507173311 | 68 | 186 | 0.0 | 0.0 | 0.00 | 0.00 | 0.00 | 61 | 1015.7 |
| 20260507173241 | 68 | 186 | 0.0 | 0.0 | 0.00 | 0.00 | 0.00 | 62 | 1015.7 |
| 20260507173158 | 67 | 186 | 0.0 | 0.0 | 0.00 | 0.00 | 0.00 | 62 | 1015.7 |
| 20260507173115 | 67 | 186 | 0.0 | 0.0 | 0.00 | 0.00 | 0.00 | 62 | 1015.7 |
| 20260507173038 | 67 | 186 | 0.0 | 0.0 | 0.00 | 0.00 | 0.00 | 62 | 1015.7 |
| 20260507173004 | 67 | 186 | 0.0 | 0.0 | 0.00 | 0.00 | 0.00 | 63 | 1015.7 |
| 20260507172940 | 67 | 186 | 0.0 | 0.0 | 0.00 | 0.00 | 0.00 | 62 | 1015.7 |
| 20260507172925 | 75 | 156 | 2.0 | 3.0 | 0.00 | 0.00 | 0.00 | 51 | 1016.2 |
| 20260507172917 | 67 | 186 | 0.0 | 0.0 | 0.00 | 0.00 | 0.00 | 62 | 1015.7 |
| 20260507172846 | 67 | 186 | 0.0 | 0.0 | 0.00 | 0.00 | 0.00 | 63 | 1015.7 |
| 20260507172816 | 67 | 186 | 0.0 | 1.0 | 0.00 | 0.00 | 0.00 | 63 | 1015.7 |
| 20260507172740 | 67 | 212 | 3.0 | 0.0 | 0.00 | 0.00 | 0.00 | 63 | 1015.7 |
| 20260507172703 | 67 | 212 | 3.0 | 0.0 | 0.00 | 0.00 | 0.00 | 63 | 1015.7 |
| 20260507172626 | 67 | 212 | 3.0 | 0.0 | 0.00 | 0.00 | 0.00 | 63 | 1015.7 |
| 20260507172550 | 67 | 212 | 3.0 | 0.0 | 0.00 | 0.00 | 0.00 | 62 | 1015.7 |
| 20260507172506 | 67 | 212 | 3.0 | 0.0 | 0.00 | 0.00 | 0.00 | 63 | 1015.7 |
| 20260507172430 | 66 | 212 | 3.0 | 0.0 | 0.00 | 0.00 | 0.00 | 64 | 1015.7 |
| 20260507172422 | 75 | 158 | 0.0 | 4.0 | 0.00 | 0.00 | 0.00 | 51 | 1016.0 |
| 20260507172400 | 66 | 212 | 3.0 | 0.0 | 0.00 | 0.00 | 0.00 | 63 | 1015.7 |
| 20260507172213 | 67 | 212 | 3.0 | 0.0 | 0.00 | 0.00 | 0.00 | 63 | 1015.7 |
| 20260507172141 | 67 | 212 | 3.0 | 0.0 | 0.00 | 0.00 | 0.00 | 62 | 1015.7 |
| 20260507172110 | 67 | 212 | 3.0 | 0.0 | 0.00 | 0.00 | 0.00 | 62 | 1015.7 |
| 20260507172039 | 67 | 212 | 3.0 | 0.0 | 0.00 | 0.00 | 0.00 | 63 | 1015.7 |
| 20260507171954 | 67 | 212 | 3.0 | 3.0 | 0.00 | 0.00 | 0.00 | 62 | 1015.7 |
| 20260507171936 | 67 | 175 | 0.0 | 0.0 | 0.00 | 0.00 | 0.00 | 62 | 1015.8 |
| 20260507171918 | 75 | 224 | 0.0 | 3.0 | 0.00 | 0.00 | 0.00 | 52 | 1016.2 |
| 20260507171808 | 67 | 175 | 0.0 | 0.0 | 0.00 | 0.00 | 0.00 | 63 | 1015.8 |
| 20260507171633 | 67 | 175 | 0.0 | 0.0 | 0.00 | 0.00 | 0.00 | 62 | 1015.8 |
| 20260507171616 | 68 | 175 | 0.0 | 0.0 | 0.00 | 0.00 | 0.00 | 61 | 1015.8 |
| 20260507171539 | 68 | 175 | 0.0 | 0.0 | 0.00 | 0.00 | 0.00 | 61 | 1015.8 |
| 20260507171414 | 75 | 187 | 3.0 | 4.0 | 0.00 | 0.00 | 0.00 | 51 | 1016.3 |
| 20260507171320 | 67 | 175 | 0.0 | 0.0 | 0.00 | 0.00 | 0.00 | 62 | 1015.8 |
| 20260507171302 | 67 | 175 | 0.0 | 0.0 | 0.00 | 0.00 | 0.00 | 62 | 1015.8 |
| 20260507171053 | 68 | 150 | 2.0 | 0.0 | 0.00 | 0.00 | 0.00 | 61 | 1015.8 |
| 20260507171016 | 68 | 150 | 2.0 | 0.0 | 0.00 | 0.00 | 0.00 | 61 | 1015.8 |
| 20260507170939 | 68 | 150 | 2.0 | 0.0 | 0.00 | 0.00 | 0.00 | 61 | 1015.8 |
| 20260507170915 | 68 | 150 | 2.0 | 0.0 | 0.00 | 0.00 | 0.00 | 62 | 1015.8 |
| 20260507170912 | 76 | 89 | 0.0 | 2.0 | 0.00 | 0.00 | 0.00 | 50 | 1016.2 |
| 20260507170852 | 67 | 150 | 2.0 | 0.0 | 0.00 | 0.00 | 0.00 | 62 | 1015.8 |
| 20260507170816 | 67 | 150 | 2.0 | 0.0 | 0.00 | 0.00 | 0.00 | 63 | 1015.8 |
| 20260507170752 | 67 | 150 | 2.0 | 0.0 | 0.00 | 0.00 | 0.00 | 62 | 1015.8 |
| 20260507170545 | 67 | 150 | 2.0 | 0.0 | 0.00 | 0.00 | 0.00 | 63 | 1015.8 |
| 20260507170522 | 67 | 150 | 2.0 | 0.0 | 0.00 | 0.00 | 0.00 | 64 | 1015.8 |
| 20260507170458 | 66 | 150 | 2.0 | 0.0 | 0.00 | 0.00 | 0.00 | 64 | 1015.8 |
| 20260507170434 | 66 | 150 | 2.0 | 0.0 | 0.00 | 0.00 | 0.00 | 63 | 1015.8 |
| 20260507170410 | 67 | 150 | 2.0 | 2.0 | 0.00 | 0.00 | 0.00 | 64 | 1015.8 |
| 20260507170408 | 75 | 123 | 2.0 | 2.0 | 0.00 | 0.00 | 0.00 | 52 | 1016.3 |
| 20260507170340 | 67 | 89 | 0.0 | 0.0 | 0.00 | 0.00 | 0.00 | 64 | 1015.7 |
| 20260507170322 | 66 | 89 | 0.0 | 0.0 | 0.00 | 0.00 | 0.00 | 64 | 1015.7 |
| 20260507170311 | 66 | 89 | 0.0 | 0.0 | 0.00 | 0.00 | 0.00 | 64 | 1015.7 |
| 20260507170143 | 66 | 89 | 0.0 | 0.0 | 0.00 | 0.00 | 0.00 | 65 | 1015.7 |
| 20260507165956 | 66 | 89 | 0.0 | 0.0 | 0.00 | 0.00 | 0.00 | 64 | 1015.7 |
| 20260507165905 | 75 | 47 | 4.0 | 4.0 | 0.00 | 0.00 | 0.00 | 52 | 1016.5 |
| 20260507165747 | 67 | 89 | 0.0 | 0.0 | 0.00 | 0.00 | 0.00 | 63 | 1015.7 |
| 20260507165710 | 67 | 89 | 0.0 | 0.0 | 0.00 | 0.00 | 0.00 | 62 | 1015.7 |
| 20260507165627 | 67 | 89 | 0.0 | 0.0 | 0.00 | 0.00 | 0.00 | 63 | 1015.7 |
| 20260507165610 | 68 | 89 | 0.0 | 0.0 | 0.00 | 0.00 | 0.00 | 62 | 1015.7 |
| 20260507165429 | 68 | 99 | 2.0 | 0.0 | 0.00 | 0.00 | 0.00 | 61 | 1015.7 |
| 20260507165412 | 67 | 99 | 2.0 | 0.0 | 0.00 | 0.00 | 0.00 | 63 | 1015.7 |
| 20260507165400 | 73 | 60 | 0.0 | 4.0 | 0.00 | 0.00 | 0.00 | 53 | 1016.4 |
| 20260507165348 | 67 | 99 | 2.0 | 0.0 | 0.00 | 0.00 | 0.00 | 63 | 1015.7 |
| 20260507165220 | 66 | 99 | 2.0 | 0.0 | 0.00 | 0.00 | 0.00 | 63 | 1015.7 |
| 20260507165203 | 66 | 99 | 2.0 | 0.0 | 0.00 | 0.00 | 0.00 | 64 | 1015.7 |
| 20260507165139 | 66 | 99 | 2.0 | 0.0 | 0.00 | 0.00 | 0.00 | 63 | 1015.7 |
| 20260507165115 | 67 | 99 | 2.0 | 0.0 | 0.00 | 0.00 | 0.00 | 63 | 1015.7 |
| 20260507165051 | 67 | 99 | 2.0 | 0.0 | 0.00 | 0.00 | 0.00 | 62 | 1015.7 |
| 20260507165028 | 68 | 99 | 2.0 | 0.0 | 0.00 | 0.00 | 0.00 | 61 | 1015.7 |
| 20260507164958 | 68 | 99 | 2.0 | 0.0 | 0.00 | 0.00 | 0.00 | 61 | 1015.7 |
| 20260507164934 | 68 | 99 | 2.0 | 0.0 | 0.00 | 0.00 | 0.00 | 61 | 1015.7 |
| 20260507164856 | 73 | 185 | 2.0 | 3.0 | 0.00 | 0.00 | 0.00 | 53 | 1016.3 |
| 20260507164734 | 67 | 99 | 2.0 | 0.0 | 0.00 | 0.00 | 0.00 | 62 | 1015.7 |
| 20260507164710 | 67 | 99 | 2.0 | 0.0 | 0.00 | 0.00 | 0.00 | 62 | 1015.7 |
| 20260507164646 | 67 | 99 | 2.0 | 2.0 | 0.00 | 0.00 | 0.00 | 62 | 1015.7 |
| 20260507164603 | 67 | 43 | 2.0 | 0.0 | 0.00 | 0.00 | 0.00 | 63 | 1015.6 |
| 20260507164547 | 67 | 43 | 2.0 | 0.0 | 0.00 | 0.00 | 0.00 | 63 | 1015.6 |
| 20260507164528 | 66 | 43 | 2.0 | 0.0 | 0.00 | 0.00 | 0.00 | 63 | 1015.6 |
| 20260507164503 | 67 | 43 | 2.0 | 0.0 | 0.00 | 0.00 | 0.00 | 63 | 1015.6 |
| 20260507164440 | 67 | 43 | 2.0 | 0.0 | 0.00 | 0.00 | 0.00 | 62 | 1015.6 |
| 20260507164416 | 67 | 43 | 2.0 | 0.0 | 0.00 | 0.00 | 0.00 | 63 | 1015.6 |
| 20260507164354 | 72 | 158 | 2.0 | 4.0 | 0.00 | 0.00 | 0.00 | 54 | 1016.3 |
| 20260507164352 | 68 | 43 | 2.0 | 0.0 | 0.00 | 0.00 | 0.00 | 61 | 1015.6 |
| 20260507164328 | 68 | 43 | 2.0 | 0.0 | 0.00 | 0.00 | 0.00 | 61 | 1015.6 |
| 20260507164305 | 68 | 43 | 2.0 | 0.0 | 0.00 | 0.00 | 0.00 | 62 | 1015.6 |
| 20260507164103 | 67 | 43 | 2.0 | 0.0 | 0.00 | 0.00 | 0.00 | 62 | 1015.6 |
| 20260507163851 | 73 | 175 | 1.0 | 2.0 | 0.00 | 0.00 | 0.00 | 54 | 1016.6 |
| 20260507163739 | 67 | 52 | 2.0 | 0.0 | 0.00 | 0.00 | 0.00 | 63 | 1015.7 |
| 20260507163715 | 67 | 52 | 2.0 | 0.0 | 0.00 | 0.00 | 0.00 | 64 | 1015.7 |
| 20260507163522 | 66 | 52 | 2.0 | 0.0 | 0.00 | 0.00 | 0.00 | 65 | 1015.7 |
| 20260507163458 | 65 | 52 | 2.0 | 0.0 | 0.00 | 0.00 | 0.00 | 66 | 1015.7 |
| 20260507163415 | 65 | 52 | 2.0 | 0.0 | 0.00 | 0.00 | 0.00 | 66 | 1015.7 |
| 20260507163348 | 73 | 210 | 1.0 | 2.0 | 0.00 | 0.00 | 0.00 | 53 | 1016.5 |
| 20260507163129 | 64 | 52 | 2.0 | 0.0 | 0.00 | 0.00 | 0.00 | 67 | 1015.7 |
| 20260507163104 | 64 | 52 | 2.0 | 0.0 | 0.00 | 0.00 | 0.00 | 68 | 1015.7 |
| 20260507163038 | 64 | 52 | 2.0 | 0.0 | 0.00 | 0.00 | 0.00 | 68 | 1015.7 |
| 20260507163013 | 64 | 52 | 2.0 | 0.0 | 0.00 | 0.00 | 0.00 | 67 | 1015.7 |
| 20260507162955 | 64 | 52 | 2.0 | 0.0 | 0.00 | 0.00 | 0.00 | 67 | 1015.7 |
| 20260507162931 | 64 | 52 | 2.0 | 2.0 | 0.00 | 0.00 | 0.00 | 68 | 1015.7 |
| 20260507162845 | 71 | 209 | 0.0 | 4.0 | 0.00 | 0.00 | 0.00 | 56 | 1016.4 |
| 20260507162841 | 64 | 88 | 2.0 | 0.0 | 0.00 | 0.00 | 0.00 | 68 | 1015.6 |
| 20260507162653 | 63 | 88 | 2.0 | 0.0 | 0.00 | 0.00 | 0.00 | 69 | 1015.6 |
| 20260507162610 | 63 | 88 | 2.0 | 0.0 | 0.00 | 0.00 | 0.00 | 70 | 1015.6 |
| 20260507162526 | 63 | 88 | 2.0 | 0.0 | 0.00 | 0.00 | 0.00 | 70 | 1015.6 |
| 20260507162449 | 63 | 88 | 2.0 | 0.0 | 0.00 | 0.00 | 0.00 | 70 | 1015.6 |
| 20260507162419 | 63 | 88 | 2.0 | 0.0 | 0.00 | 0.00 | 0.00 | 70 | 1015.6 |
| 20260507162348 | 63 | 88 | 2.0 | 0.0 | 0.00 | 0.00 | 0.00 | 70 | 1015.6 |
| 20260507162340 | 72 | 81 | 2.0 | 4.0 | 0.00 | 0.00 | 0.00 | 54 | 1016.8 |
| 20260507162306 | 62 | 88 | 2.0 | 0.0 | 0.00 | 0.00 | 0.00 | 71 | 1015.6 |
| 20260507162220 | 62 | 88 | 2.0 | 0.0 | 0.00 | 0.00 | 0.00 | 71 | 1015.6 |
| 20260507162156 | 62 | 88 | 2.0 | 0.0 | 0.00 | 0.00 | 0.00 | 72 | 1015.6 |
| 20260507162132 | 62 | 88 | 2.0 | 2.0 | 0.00 | 0.00 | 0.00 | 72 | 1015.6 |
| 20260507161838 | 72 | 77 | 1.0 | 3.0 | 0.00 | 0.00 | 0.00 | 56 | 1016.3 |
| 20260507161819 | 60 | 81 | 2.0 | 0.0 | 0.00 | 0.00 | 0.00 | 74 | 1015.4 |
| 20260507161802 | 60 | 81 | 2.0 | 0.0 | 0.00 | 0.00 | 0.00 | 74 | 1015.4 |
| 20260507161738 | 60 | 81 | 2.0 | 0.0 | 0.00 | 0.00 | 0.00 | 75 | 1015.4 |
| 20260507161647 | 60 | 81 | 2.0 | 0.0 | 0.00 | 0.00 | 0.00 | 75 | 1015.4 |
| 20260507161443 | 59 | 81 | 2.0 | 0.0 | 0.00 | 0.00 | 0.00 | 76 | 1015.4 |
| 20260507161426 | 59 | 81 | 2.0 | 0.0 | 0.00 | 0.00 | 0.00 | 76 | 1015.4 |
| 20260507161334 | 72 | 21 | 1.0 | 2.0 | 0.00 | 0.00 | 0.00 | 56 | 1016.3 |
| 20260507161304 | 59 | 81 | 2.0 | 0.0 | 0.00 | 0.00 | 0.00 | 75 | 1015.4 |
| 20260507161240 | 60 | 81 | 2.0 | 2.0 | 0.00 | 0.00 | 0.00 | 75 | 1015.4 |
| 20260507161150 | 60 | 73 | 2.0 | 0.0 | 0.00 | 0.00 | 0.00 | 75 | 1015.5 |
| 20260507161120 | 60 | 73 | 2.0 | 0.0 | 0.00 | 0.00 | 0.00 | 75 | 1015.5 |
| 20260507161049 | 60 | 73 | 2.0 | 0.0 | 0.00 | 0.00 | 0.00 | 75 | 1015.5 |
| 20260507161032 | 60 | 73 | 2.0 | 0.0 | 0.00 | 0.00 | 0.00 | 76 | 1015.5 |
| 20260507161005 | 59 | 73 | 2.0 | 0.0 | 0.00 | 0.00 | 0.00 | 76 | 1015.5 |
| 20260507160929 | 59 | 73 | 2.0 | 0.0 | 0.00 | 0.00 | 0.00 | 76 | 1015.5 |
| 20260507160911 | 59 | 73 | 2.0 | 0.0 | 0.00 | 0.00 | 0.00 | 76 | 1015.5 |
| 20260507160831 | 72 | 133 | 2.0 | 2.0 | 0.00 | 0.00 | 0.00 | 56 | 1016.4 |
| 20260507160723 | 59 | 73 | 2.0 | 0.0 | 0.00 | 0.00 | 0.00 | 77 | 1015.5 |
| 20260507160653 | 59 | 73 | 2.0 | 0.0 | 0.00 | 0.00 | 0.00 | 77 | 1015.5 |
| 20260507160635 | 58 | 73 | 2.0 | 0.0 | 0.00 | 0.00 | 0.00 | 78 | 1015.5 |
| 20260507160326 | 70 | 44 | 0.0 | 3.0 | 0.00 | 0.00 | 0.00 | 57 | 1016.4 |
| 20260507160310 | 58 | 7 | 2.0 | 0.0 | 0.00 | 0.00 | 0.00 | 80 | 1015.5 |
| 20260507160246 | 57 | 7 | 2.0 | 0.0 | 0.00 | 0.00 | 0.00 | 80 | 1015.5 |
| 20260507160222 | 57 | 7 | 2.0 | 0.0 | 0.00 | 0.00 | 0.00 | 81 | 1015.5 |
| 20260507160131 | 57 | 7 | 2.0 | 0.0 | 0.00 | 0.00 | 0.00 | 81 | 1015.5 |
| 20260507160107 | 57 | 7 | 2.0 | 0.0 | 0.00 | 0.00 | 0.00 | 81 | 1015.5 |
| 20260507160030 | 56 | 7 | 2.0 | 0.0 | 0.00 | 0.00 | 0.00 | 81 | 1015.5 |
| 20260507155939 | 56 | 7 | 2.0 | 0.0 | 0.00 | 0.00 | 0.00 | 82 | 1015.5 |
| 20260507155902 | 56 | 7 | 2.0 | 0.0 | 0.00 | 0.00 | 0.00 | 82 | 1015.5 |
| 20260507155831 | 56 | 7 | 2.0 | 0.0 | 0.00 | 0.00 | 0.00 | 82 | 1015.5 |
| 20260507155823 | 69 | 242 | 2.0 | 4.0 | 0.00 | 0.00 | 0.00 | 60 | 1016.6 |
| 20260507155752 | 56 | 7 | 2.0 | 0.0 | 0.00 | 0.00 | 0.00 | 82 | 1015.5 |
| 20260507155722 | 56 | 7 | 2.0 | 0.0 | 0.00 | 0.00 | 0.00 | 82 | 1015.5 |
| 20260507155705 | 56 | 7 | 2.0 | 0.0 | 0.00 | 0.00 | 0.00 | 82 | 1015.5 |
| 20260507155641 | 56 | 7 | 2.0 | 3.0 | 0.00 | 0.00 | 0.00 | 82 | 1015.5 |
| 20260507155558 | 56 | 32 | 1.0 | 0.0 | 0.00 | 0.00 | 0.00 | 82 | 1015.0 |
| 20260507155515 | 56 | 32 | 1.0 | 0.0 | 0.00 | 0.00 | 0.00 | 82 | 1015.0 |
| 20260507155451 | 56 | 32 | 1.0 | 0.0 | 0.00 | 0.00 | 0.00 | 82 | 1015.0 |
| 20260507155412 | 56 | 32 | 1.0 | 0.0 | 0.00 | 0.00 | 0.00 | 82 | 1015.0 |
| 20260507155336 | 56 | 32 | 1.0 | 0.0 | 0.00 | 0.00 | 0.00 | 83 | 1015.0 |
| 20260507155319 | 69 | 113 | 0.0 | 3.0 | 0.00 | 0.00 | 0.00 | 60 | 1016.5 |
| 20260507155313 | 56 | 32 | 1.0 | 0.0 | 0.00 | 0.00 | 0.00 | 83 | 1015.0 |
| 20260507155249 | 56 | 32 | 1.0 | 0.0 | 0.00 | 0.00 | 0.00 | 83 | 1015.0 |
| 20260507155108 | 55 | 32 | 1.0 | 0.0 | 0.00 | 0.00 | 0.00 | 83 | 1015.0 |
| 20260507155044 | 55 | 32 | 1.0 | 0.0 | 0.00 | 0.00 | 0.00 | 84 | 1015.0 |
| 20260507155020 | 55 | 32 | 1.0 | 0.0 | 0.00 | 0.00 | 0.00 | 84 | 1015.0 |
| 20260507154846 | 55 | 71 | 1.0 | 0.0 | 0.00 | 0.00 | 0.00 | 84 | 1015.2 |
| 20260507154815 | 69 | 202 | 0.0 | 4.0 | 0.00 | 0.00 | 0.00 | 59 | 1016.5 |
| 20260507154645 | 55 | 71 | 1.0 | 0.0 | 0.00 | 0.00 | 0.00 | 85 | 1015.2 |
| 20260507154352 | 54 | 71 | 1.0 | 0.0 | 0.00 | 0.00 | 0.00 | 86 | 1015.2 |
| 20260507154313 | 69 | 72 | 1.0 | 4.0 | 0.00 | 0.00 | 0.00 | 59 | 1016.6 |
| 20260507154204 | 54 | 71 | 1.0 | 0.0 | 0.00 | 0.00 | 0.00 | 86 | 1015.2 |
| 20260507154147 | 54 | 71 | 1.0 | 0.0 | 0.00 | 0.00 | 0.00 | 86 | 1015.2 |
| 20260507154123 | 54 | 71 | 1.0 | 2.0 | 0.00 | 0.00 | 0.00 | 86 | 1015.2 |
| 20260507154009 | 54 | 85 | 2.0 | 0.0 | 0.00 | 0.00 | 0.00 | 86 | 1015.3 |
| 20260507153937 | 54 | 85 | 2.0 | 0.0 | 0.00 | 0.00 | 0.00 | 86 | 1015.3 |
| 20260507153914 | 54 | 85 | 2.0 | 0.0 | 0.00 | 0.00 | 0.00 | 86 | 1015.3 |
| 20260507153844 | 54 | 85 | 2.0 | 0.0 | 0.00 | 0.00 | 0.00 | 86 | 1015.3 |
| 20260507153809 | 68 | 164 | 2.0 | 3.0 | 0.00 | 0.00 | 0.00 | 61 | 1016.7 |
| 20260507153649 | 54 | 85 | 2.0 | 0.0 | 0.00 | 0.00 | 0.00 | 86 | 1015.3 |
| 20260507153455 | 54 | 85 | 2.0 | 0.0 | 0.00 | 0.00 | 0.00 | 86 | 1015.3 |
| 20260507153431 | 54 | 85 | 2.0 | 3.0 | 0.00 | 0.00 | 0.00 | 86 | 1015.3 |
| 20260507153348 | 54 | 70 | 2.0 | 0.0 | 0.00 | 0.00 | 0.00 | 86 | 1015.3 |
| 20260507153325 | 54 | 70 | 2.0 | 0.0 | 0.00 | 0.00 | 0.00 | 86 | 1015.3 |
| 20260507153306 | 67 | 208 | 0.0 | 3.0 | 0.00 | 0.00 | 0.00 | 62 | 1016.7 |
| 20260507153255 | 54 | 70 | 2.0 | 0.0 | 0.00 | 0.00 | 0.00 | 86 | 1015.3 |
| 20260507152917 | 54 | 70 | 2.0 | 0.0 | 0.00 | 0.00 | 0.00 | 86 | 1015.3 |
| 20260507152841 | 54 | 70 | 2.0 | 0.0 | 0.00 | 0.00 | 0.00 | 86 | 1015.3 |
| 20260507152811 | 54 | 70 | 2.0 | 0.0 | 0.00 | 0.00 | 0.00 | 86 | 1015.3 |
| 20260507152802 | 67 | 175 | 1.0 | 3.0 | 0.00 | 0.00 | 0.00 | 63 | 1016.7 |
| 20260507152754 | 54 | 70 | 2.0 | 0.0 | 0.00 | 0.00 | 0.00 | 86 | 1015.3 |
| 20260507152730 | 54 | 70 | 2.0 | 0.0 | 0.00 | 0.00 | 0.00 | 87 | 1015.3 |
| 20260507152709 | 54 | 70 | 2.0 | 0.0 | 0.00 | 0.00 | 0.00 | 87 | 1015.3 |
| 20260507152644 | 54 | 70 | 2.0 | 2.0 | 0.00 | 0.00 | 0.00 | 87 | 1015.3 |
| 20260507152601 | 54 | 24 | 2.0 | 0.0 | 0.00 | 0.00 | 0.00 | 87 | 1015.1 |
| 20260507152530 | 54 | 24 | 2.0 | 0.0 | 0.00 | 0.00 | 0.00 | 87 | 1015.1 |
| 20260507152500 | 54 | 24 | 2.0 | 0.0 | 0.00 | 0.00 | 0.00 | 87 | 1015.1 |
| 20260507152417 | 54 | 24 | 2.0 | 0.0 | 0.00 | 0.00 | 0.00 | 87 | 1015.1 |
| 20260507152341 | 54 | 24 | 2.0 | 0.0 | 0.00 | 0.00 | 0.00 | 87 | 1015.1 |
| 20260507152317 | 54 | 24 | 2.0 | 0.0 | 0.00 | 0.00 | 0.00 | 87 | 1015.1 |
| 20260507152259 | 67 | 185 | 0.0 | 3.0 | 0.00 | 0.00 | 0.00 | 62 | 1016.5 |
| 20260507152038 | 54 | 24 | 2.0 | 3.0 | 0.00 | 0.00 | 0.00 | 87 | 1015.1 |
| 20260507152004 | 54 | 27 | 1.0 | 0.0 | 0.00 | 0.00 | 0.00 | 87 | 1015.0 |
| 20260507151940 | 53 | 27 | 1.0 | 0.0 | 0.00 | 0.00 | 0.00 | 87 | 1015.0 |
| 20260507151916 | 53 | 27 | 1.0 | 0.0 | 0.00 | 0.00 | 0.00 | 87 | 1015.0 |
| 20260507151846 | 53 | 27 | 1.0 | 0.0 | 0.00 | 0.00 | 0.00 | 87 | 1015.0 |
| 20260507151816 | 53 | 27 | 1.0 | 0.0 | 0.00 | 0.00 | 0.00 | 87 | 1015.0 |
| 20260507151800 | 53 | 27 | 1.0 | 0.0 | 0.00 | 0.00 | 0.00 | 87 | 1015.0 |
| 20260507151755 | 68 | 170 | 2.0 | 2.0 | 0.00 | 0.00 | 0.00 | 62 | 1016.8 |
| 20260507151736 | 53 | 27 | 1.0 | 0.0 | 0.00 | 0.00 | 0.00 | 88 | 1015.0 |
| 20260507151706 | 53 | 27 | 1.0 | 0.0 | 0.00 | 0.00 | 0.00 | 88 | 1015.0 |
| 20260507151251 | 68 | 112 | 0.0 | 2.0 | 0.00 | 0.00 | 0.00 | 62 | 1016.6 |
| 20260507150748 | 68 | 184 | 0.0 | 2.0 | 0.00 | 0.00 | 0.00 | 61 | 1016.7 |
| 20260507150245 | 67 | 106 | 0.0 | 2.0 | 0.00 | 0.00 | 0.00 | 63 | 1016.8 |
| 20260507145741 | 66 | 178 | 2.0 | 4.0 | 0.00 | 0.00 | 0.00 | 64 | 1016.6 |
| 20260507145238 | 67 | 197 | 1.0 | 2.0 | 0.00 | 0.00 | 0.00 | 63 | 1016.7 |
| 20260507144735 | 66 | 89 | 0.0 | 2.0 | 0.00 | 0.00 | 0.00 | 63 | 1016.7 |
| 20260507144232 | 68 | 96 | 1.0 | 2.0 | 0.00 | 0.00 | 0.00 | 61 | 1016.5 |
| 20260507143729 | 67 | 132 | 3.0 | 3.0 | 0.00 | 0.00 | 0.00 | 63 | 1016.4 |
| 20260507143226 | 67 | 120 | 1.0 | 2.0 | 0.00 | 0.00 | 0.00 | 62 | 1016.7 |
| 20260507142722 | 66 | 80 | 1.0 | 2.0 | 0.00 | 0.00 | 0.00 | 64 | 1016.5 |
| 20260507142219 | 64 | 76 | 2.0 | 2.0 | 0.00 | 0.00 | 0.00 | 68 | 1016.5 |
| 20260507141714 | 63 | 76 | 1.0 | 2.0 | 0.00 | 0.00 | 0.00 | 70 | 1016.4 |
| 20260507141212 | 62 | 82 | 2.0 | 2.0 | 0.00 | 0.00 | 0.00 | 71 | 1016.4 |
| 20260507140708 | 60 | 103 | 2.0 | 2.0 | 0.00 | 0.00 | 0.00 | 74 | 1016.4 |
| 20260507140206 | 59 | 62 | 2.0 | 2.0 | 0.00 | 0.00 | 0.00 | 76 | 1016.3 |
| 20260507135703 | 60 | 85 | 1.0 | 2.0 | 0.00 | 0.00 | 0.00 | 75 | 1016.4 |
| 20260507135200 | 59 | 56 | 2.0 | 2.0 | 0.00 | 0.00 | 0.00 | 78 | 1016.0 |
| 20260507134657 | 57 | 54 | 2.0 | 4.0 | 0.00 | 0.00 | 0.00 | 81 | 1016.2 |
| 20260507134152 | 56 | 15 | 2.0 | 3.0 | 0.00 | 0.00 | 0.00 | 82 | 1016.2 |
| 20260507133648 | 56 | 25 | 2.0 | 4.0 | 0.00 | 0.00 | 0.00 | 82 | 1016.0 |
| 20260507133146 | 55 | 67 | 0.0 | 3.0 | 0.00 | 0.00 | 0.00 | 83 | 1016.2 |
| 20260507132643 | 55 | 100 | 2.0 | 3.0 | 0.00 | 0.00 | 0.00 | 85 | 1016.0 |
| 20260507132139 | 54 | 28 | 0.0 | 2.0 | 0.00 | 0.00 | 0.00 | 86 | 1016.2 |
| 20260507131636 | 54 | 67 | 2.0 | 2.0 | 0.00 | 0.00 | 0.00 | 86 | 1016.3 |
| 20260507131134 | 54 | 105 | 0.0 | 3.0 | 0.00 | 0.00 | 0.00 | 86 | 1016.3 |
| 20260507130630 | 54 | 79 | 0.0 | 2.0 | 0.00 | 0.00 | 0.00 | 86 | 1016.2 |
| 20260507130128 | 54 | 31 | 2.0 | 3.0 | 0.00 | 0.00 | 0.00 | 86 | 1016.0 |
| 20260507125627 | 54 | 147 | 1.0 | 3.0 | 0.00 | 0.00 | 0.00 | 87 | 1016.0 |
| 20260507125124 | 54 | 19 | 2.0 | 3.0 | 0.00 | 0.00 | 0.00 | 87 | 1016.0 |
| 20260507124620 | 53 | 46 | 2.0 | 3.0 | 0.00 | 0.00 | 0.00 | 87 | 1016.2 |
| 20260507124118 | 53 | 12 | 1.0 | 3.0 | 0.00 | 0.00 | 0.00 | 88 | 1015.7 |
| 20260507123616 | 53 | 60 | 0.0 | 1.0 | 0.00 | 0.00 | 0.00 | 88 | 1016.0 |
| 20260507123113 | 53 | 66 | 0.0 | 2.0 | 0.00 | 0.00 | 0.00 | 88 | 1015.8 |
| 20260507122608 | 53 | 55 | 0.0 | 2.0 | 0.00 | 0.00 | 0.00 | 88 | 1015.9 |
| 20260507122104 | 53 | 77 | 0.0 | 2.0 | 0.00 | 0.00 | 0.00 | 88 | 1015.9 |
| 20260507121559 | 54 | 69 | 0.0 | 2.0 | 0.00 | 0.00 | 0.00 | 87 | 1015.9 |
| 20260507121056 | 54 | 89 | 1.0 | 2.0 | 0.00 | 0.00 | 0.00 | 87 | 1015.8 |
| 20260507120552 | 54 | 69 | 0.0 | 2.0 | 0.00 | 0.00 | 0.00 | 86 | 1016.2 |
| 20260507120049 | 54 | 56 | 2.0 | 2.0 | 0.00 | 0.00 | 0.00 | 86 | 1015.8 |
| 20260507115545 | 54 | 84 | 2.0 | 2.0 | 0.00 | 0.00 | 0.00 | 86 | 1015.8 |
| 20260507115041 | 54 | 66 | 2.0 | 2.0 | 0.00 | 0.00 | 0.00 | 86 | 1015.8 |
| 20260507114537 | 55 | 68 | 2.0 | 2.0 | 0.00 | 0.00 | 0.00 | 85 | 1015.9 |
| 20260507114035 | 55 | 72 | 2.0 | 2.0 | 0.00 | 0.00 | 0.00 | 84 | 1015.9 |
| 20260507113531 | 55 | 69 | 1.0 | 2.0 | 0.00 | 0.00 | 0.00 | 84 | 1015.8 |
| 20260507113029 | 55 | 51 | 2.0 | 2.0 | 0.00 | 0.00 | 0.00 | 84 | 1016.0 |
| 20260507112526 | 56 | 57 | 2.0 | 3.0 | 0.00 | 0.00 | 0.00 | 82 | 1016.0 |
| 20260507112023 | 56 | 77 | 0.0 | 2.0 | 0.00 | 0.00 | 0.00 | 82 | 1016.0 |
| 20260507111520 | 57 | 6 | 2.0 | 5.0 | 0.00 | 0.00 | 0.00 | 82 | 1016.0 |
| 20260507111017 | 57 | 18 | 2.0 | 3.0 | 0.00 | 0.00 | 0.00 | 82 | 1016.2 |
| 20260507110513 | 57 | 18 | 4.0 | 4.0 | 0.00 | 0.00 | 0.00 | 82 | 1016.0 |
| 20260507110010 | 56 | 1 | 1.0 | 2.0 | 0.00 | 0.00 | 0.00 | 83 | 1016.2 |
| 20260507105507 | 56 | 28 | 0.0 | 2.0 | 0.00 | 0.00 | 0.00 | 83 | 1016.3 |
| 20260507105003 | 56 | 50 | 1.0 | 2.0 | 0.00 | 0.00 | 0.00 | 83 | 1016.2 |
| 20260507104500 | 56 | 2 | 1.0 | 2.0 | 0.00 | 0.00 | 0.00 | 84 | 1016.3 |
| 20260507103955 | 56 | 51 | 1.0 | 2.0 | 0.00 | 0.00 | 0.00 | 83 | 1016.2 |
| 20260507103452 | 56 | 78 | 0.0 | 1.0 | 0.00 | 0.00 | 0.00 | 82 | 1016.3 |
| 20260507102949 | 56 | 33 | 1.0 | 2.0 | 0.00 | 0.00 | 0.00 | 82 | 1016.4 |
| 20260507102446 | 56 | 65 | 0.0 | 2.0 | 0.00 | 0.00 | 0.00 | 82 | 1016.5 |
| 20260507101942 | 56 | 31 | 0.0 | 2.0 | 0.00 | 0.00 | 0.00 | 82 | 1016.5 |
| 20260507101437 | 56 | 351 | 0.0 | 2.0 | 0.00 | 0.00 | 0.00 | 82 | 1016.5 |
| 20260507100934 | 56 | 41 | 0.0 | 3.0 | 0.00 | 0.00 | 0.00 | 82 | 1016.5 |
| 20260507100431 | 56 | 32 | 2.0 | 2.0 | 0.00 | 0.00 | 0.00 | 83 | 1016.5 |
| 20260507095930 | 56 | 53 | 0.0 | 1.0 | 0.00 | 0.00 | 0.00 | 82 | 1016.5 |
| 20260507095427 | 56 | 35 | 1.0 | 2.0 | 0.00 | 0.00 | 0.00 | 82 | 1016.6 |
| 20260507094924 | 56 | 129 | 0.0 | 2.0 | 0.00 | 0.00 | 0.00 | 81 | 1016.6 |
| 20260507094420 | 57 | 50 | 0.0 | 0.0 | 0.00 | 0.00 | 0.00 | 81 | 1016.5 |
| 20260507093917 | 57 | 65 | 2.0 | 3.0 | 0.00 | 0.00 | 0.00 | 80 | 1016.4 |
| 20260507093415 | 57 | 49 | 2.0 | 2.0 | 0.00 | 0.00 | 0.00 | 80 | 1016.9 |
| 20260507092913 | 57 | 25 | 2.0 | 3.0 | 0.00 | 0.00 | 0.00 | 80 | 1016.6 |
| 20260507092409 | 57 | 36 | 0.0 | 2.0 | 0.00 | 0.00 | 0.00 | 81 | 1016.8 |
| 20260507091906 | 57 | 60 | 0.0 | 1.0 | 0.00 | 0.00 | 0.00 | 81 | 1016.6 |
| 20260507091402 | 57 | 38 | 0.0 | 2.0 | 0.00 | 0.00 | 0.00 | 80 | 1016.8 |
| 20260507090858 | 57 | 23 | 2.0 | 3.0 | 0.00 | 0.00 | 0.00 | 81 | 1016.8 |
| 20260507090354 | 57 | 24 | 0.0 | 2.0 | 0.00 | 0.00 | 0.00 | 80 | 1016.6 |
| 20260507085851 | 57 | 9 | 0.0 | 5.0 | 0.00 | 0.00 | 0.00 | 81 | 1016.9 |
| 20260507085348 | 56 | 18 | 2.0 | 5.0 | 0.00 | 0.00 | 0.00 | 82 | 1016.8 |
| 20260507084845 | 55 | 37 | 6.0 | 6.0 | 0.00 | 0.00 | 0.00 | 83 | 1017.1 |
| 20260507084342 | 55 | 75 | 0.0 | 2.0 | 0.00 | 0.00 | 0.00 | 83 | 1017.0 |
| 20260507083839 | 55 | 357 | 2.0 | 4.0 | 0.00 | 0.00 | 0.00 | 82 | 1017.2 |
| 20260507083336 | 56 | 0 | 3.0 | 4.0 | 0.00 | 0.00 | 0.00 | 82 | 1017.2 |
| 20260507082832 | 56 | 15 | 4.0 | 6.0 | 0.00 | 0.00 | 0.00 | 82 | 1017.0 |
| 20260507082327 | 56 | 23 | 2.0 | 4.0 | 0.00 | 0.00 | 0.00 | 82 | 1017.3 |
| 20260507081825 | 56 | 27 | 2.0 | 3.0 | 0.00 | 0.00 | 0.00 | 81 | 1017.4 |
| 20260507081321 | 56 | 23 | 3.0 | 3.0 | 0.00 | 0.00 | 0.00 | 81 | 1017.5 |
| 20260507080818 | 56 | 9 | 2.0 | 3.0 | 0.00 | 0.00 | 0.00 | 81 | 1017.6 |
| 20260507080314 | 56 | 34 | 2.0 | 4.0 | 0.00 | 0.00 | 0.00 | 81 | 1017.7 |
| 20260507075809 | 56 | 24 | 2.0 | 3.0 | 0.00 | 0.00 | 0.00 | 81 | 1017.5 |
| 20260507075307 | 56 | 61 | 1.0 | 2.0 | 0.00 | 0.00 | 0.00 | 80 | 1017.5 |
| 20260507075034 | 57 | 22 | 2.0 | 0.0 | 0.00 | 0.00 | 0.00 | 78 | 1016.6 |
| 20260507074951 | 57 | 22 | 2.0 | 0.0 | 0.00 | 0.00 | 0.00 | 78 | 1016.6 |
| 20260507074915 | 57 | 22 | 2.0 | 0.0 | 0.00 | 0.00 | 0.00 | 78 | 1016.6 |
| 20260507074838 | 57 | 22 | 2.0 | 0.0 | 0.00 | 0.00 | 0.00 | 78 | 1016.6 |
| 20260507074802 | 56 | 66 | 2.0 | 2.0 | 0.00 | 0.00 | 0.00 | 80 | 1017.6 |
| 20260507074626 | 57 | 22 | 2.0 | 0.0 | 0.00 | 0.00 | 0.00 | 78 | 1016.6 |
| 20260507074549 | 57 | 22 | 2.0 | 0.0 | 0.00 | 0.00 | 0.00 | 78 | 1016.6 |
| 20260507074512 | 57 | 22 | 2.0 | 0.0 | 0.00 | 0.00 | 0.00 | 78 | 1016.6 |
| 20260507074429 | 57 | 22 | 2.0 | 0.0 | 0.00 | 0.00 | 0.00 | 78 | 1016.6 |
| 20260507074405 | 57 | 22 | 2.0 | 0.0 | 0.00 | 0.00 | 0.00 | 78 | 1016.6 |
| 20260507074300 | 56 | 48 | 0.0 | 3.0 | 0.00 | 0.00 | 0.00 | 80 | 1017.5 |
| 20260507073945 | 57 | 54 | 0.0 | 0.0 | 0.00 | 0.00 | 0.00 | 78 | 1016.5 |
| 20260507073906 | 57 | 54 | 0.0 | 0.0 | 0.00 | 0.00 | 0.00 | 77 | 1016.5 |
| 20260507073842 | 57 | 54 | 0.0 | 0.0 | 0.00 | 0.00 | 0.00 | 78 | 1016.5 |
| 20260507073811 | 57 | 54 | 0.0 | 0.0 | 0.00 | 0.00 | 0.00 | 77 | 1016.5 |
| 20260507073757 | 56 | 55 | 0.0 | 3.0 | 0.00 | 0.00 | 0.00 | 80 | 1017.4 |
| 20260507073734 | 57 | 54 | 0.0 | 0.0 | 0.00 | 0.00 | 0.00 | 77 | 1016.5 |
| 20260507073658 | 57 | 54 | 0.0 | 0.0 | 0.00 | 0.00 | 0.00 | 77 | 1016.5 |
| 20260507073439 | 58 | 54 | 0.0 | 0.0 | 0.00 | 0.00 | 0.00 | 77 | 1016.5 |
| 20260507073402 | 58 | 54 | 0.0 | 0.0 | 0.00 | 0.00 | 0.00 | 77 | 1016.5 |
| 20260507073332 | 58 | 54 | 0.0 | 0.0 | 0.00 | 0.00 | 0.00 | 78 | 1016.5 |
| 20260507073302 | 58 | 54 | 0.0 | 1.0 | 0.00 | 0.00 | 0.00 | 77 | 1016.5 |
| 20260507073253 | 57 | 49 | 1.0 | 3.0 | 0.00 | 0.00 | 0.00 | 80 | 1017.3 |
| 20260507073035 | 58 | 46 | 1.0 | 0.0 | 0.00 | 0.00 | 0.00 | 77 | 1016.4 |
| 20260507073012 | 58 | 46 | 1.0 | 0.0 | 0.00 | 0.00 | 0.00 | 78 | 1016.4 |
| 20260507072941 | 58 | 46 | 1.0 | 0.0 | 0.00 | 0.00 | 0.00 | 77 | 1016.4 |
| 20260507072904 | 58 | 46 | 1.0 | 0.0 | 0.00 | 0.00 | 0.00 | 77 | 1016.4 |
| 20260507072821 | 57 | 46 | 1.0 | 0.0 | 0.00 | 0.00 | 0.00 | 77 | 1016.4 |
| 20260507072751 | 57 | 70 | 1.0 | 1.0 | 0.00 | 0.00 | 0.00 | 80 | 1017.5 |
| 20260507072745 | 57 | 46 | 1.0 | 0.0 | 0.00 | 0.00 | 0.00 | 77 | 1016.4 |
| 20260507072551 | 57 | 46 | 1.0 | 0.0 | 0.00 | 0.00 | 0.00 | 78 | 1016.4 |
| 20260507072331 | 57 | 46 | 1.0 | 0.0 | 0.00 | 0.00 | 0.00 | 78 | 1016.4 |
| 20260507072308 | 57 | 46 | 1.0 | 0.0 | 0.00 | 0.00 | 0.00 | 78 | 1016.4 |
| 20260507072248 | 57 | 85 | 2.0 | 2.0 | 0.00 | 0.00 | 0.00 | 79 | 1017.5 |
| 20260507072237 | 57 | 46 | 1.0 | 2.0 | 0.00 | 0.00 | 0.00 | 78 | 1016.4 |
| 20260507072146 | 57 | 48 | 0.0 | 0.0 | 0.00 | 0.00 | 0.00 | 78 | 1016.6 |
| 20260507072103 | 58 | 48 | 0.0 | 0.0 | 0.00 | 0.00 | 0.00 | 78 | 1016.6 |
| 20260507072025 | 58 | 48 | 0.0 | 0.0 | 0.00 | 0.00 | 0.00 | 78 | 1016.6 |
| 20260507071942 | 58 | 48 | 0.0 | 0.0 | 0.00 | 0.00 | 0.00 | 78 | 1016.6 |
| 20260507071938 | 58 | 48 | 0.0 | 0.0 | 0.00 | 0.00 | 0.00 | 77 | 1016.6 |
| 20260507071914 | 58 | 48 | 0.0 | 0.0 | 0.00 | 0.00 | 0.00 | 78 | 1016.6 |
| 20260507071746 | 57 | 69 | 2.0 | 2.0 | 0.00 | 0.00 | 0.00 | 79 | 1017.5 |
| 20260507071654 | 58 | 48 | 0.0 | 0.0 | 0.00 | 0.00 | 0.00 | 77 | 1016.6 |
| 20260507071617 | 58 | 48 | 0.0 | 0.0 | 0.00 | 0.00 | 0.00 | 77 | 1016.6 |
| 20260507071540 | 58 | 48 | 0.0 | 0.0 | 0.00 | 0.00 | 0.00 | 78 | 1016.6 |
| 20260507071510 | 58 | 48 | 0.0 | 0.0 | 0.00 | 0.00 | 0.00 | 77 | 1016.6 |
| 20260507071315 | 58 | 48 | 0.0 | 1.0 | 0.00 | 0.00 | 0.00 | 77 | 1016.6 |
| 20260507071242 | 57 | 64 | 1.0 | 3.0 | 0.00 | 0.00 | 0.00 | 79 | 1017.6 |
| 20260507071225 | 58 | 41 | 2.0 | 0.0 | 0.00 | 0.00 | 0.00 | 77 | 1016.4 |
| 20260507071148 | 58 | 41 | 2.0 | 0.0 | 0.00 | 0.00 | 0.00 | 77 | 1016.4 |
| 20260507071111 | 58 | 41 | 2.0 | 0.0 | 0.00 | 0.00 | 0.00 | 77 | 1016.4 |
| 20260507070851 | 58 | 41 | 2.0 | 0.0 | 0.00 | 0.00 | 0.00 | 77 | 1016.4 |
| 20260507070808 | 58 | 41 | 2.0 | 0.0 | 0.00 | 0.00 | 0.00 | 77 | 1016.4 |
| 20260507070739 | 57 | 89 | 0.0 | 1.0 | 0.00 | 0.00 | 0.00 | 78 | 1017.4 |
| 20260507070731 | 58 | 41 | 2.0 | 0.0 | 0.00 | 0.00 | 0.00 | 77 | 1016.4 |
| 20260507070650 | 58 | 41 | 2.0 | 0.0 | 0.00 | 0.00 | 0.00 | 77 | 1016.4 |
| 20260507070614 | 58 | 41 | 2.0 | 0.0 | 0.00 | 0.00 | 0.00 | 77 | 1016.4 |
| 20260507070550 | 58 | 41 | 2.0 | 0.0 | 0.00 | 0.00 | 0.00 | 77 | 1016.4 |
| 20260507070505 | 58 | 41 | 2.0 | 2.0 | 0.00 | 0.00 | 0.00 | 77 | 1016.4 |
| 20260507070415 | 58 | 32 | 0.0 | 0.0 | 0.00 | 0.00 | 0.00 | 77 | 1016.7 |
| 20260507070236 | 57 | 51 | 0.0 | 2.0 | 0.00 | 0.00 | 0.00 | 78 | 1017.6 |
| 20260507070202 | 58 | 32 | 0.0 | 0.0 | 0.00 | 0.00 | 0.00 | 77 | 1016.7 |
| 20260507070125 | 58 | 32 | 0.0 | 0.0 | 0.00 | 0.00 | 0.00 | 77 | 1016.7 |
| 20260507070046 | 58 | 32 | 0.0 | 0.0 | 0.00 | 0.00 | 0.00 | 76 | 1016.7 |
| 20260507070000 | 58 | 32 | 0.0 | 0.0 | 0.00 | 0.00 | 0.00 | 76 | 1016.7 |
| 20260507065923 | 58 | 32 | 0.0 | 0.0 | 0.00 | 0.00 | 0.00 | 76 | 1016.7 |
| 20260507065847 | 58 | 32 | 0.0 | 0.0 | 0.00 | 0.00 | 0.00 | 76 | 1016.7 |
| 20260507065823 | 58 | 32 | 0.0 | 0.0 | 0.00 | 0.00 | 0.00 | 76 | 1016.7 |
| 20260507065759 | 58 | 32 | 0.0 | 0.0 | 0.00 | 0.00 | 0.00 | 77 | 1016.7 |
| 20260507065732 | 57 | 15 | 2.0 | 4.0 | 0.00 | 0.00 | 0.00 | 78 | 1017.5 |
| 20260507065716 | 58 | 32 | 0.0 | 0.0 | 0.00 | 0.00 | 0.00 | 76 | 1016.7 |
| 20260507065653 | 58 | 32 | 0.0 | 0.0 | 0.00 | 0.00 | 0.00 | 76 | 1016.7 |
| 20260507065610 | 58 | 32 | 0.0 | 1.0 | 0.00 | 0.00 | 0.00 | 76 | 1016.7 |
| 20260507065501 | 58 | 48 | 2.0 | 0.0 | 0.00 | 0.00 | 0.00 | 76 | 1016.4 |
| 20260507065241 | 58 | 48 | 2.0 | 0.0 | 0.00 | 0.00 | 0.00 | 76 | 1016.4 |
| 20260507065229 | 57 | 37 | 0.0 | 2.0 | 0.00 | 0.00 | 0.00 | 78 | 1017.4 |
| 20260507065021 | 58 | 48 | 2.0 | 0.0 | 0.00 | 0.00 | 0.00 | 76 | 1016.4 |
| 20260507064938 | 58 | 48 | 2.0 | 0.0 | 0.00 | 0.00 | 0.00 | 76 | 1016.4 |
| 20260507064900 | 58 | 48 | 2.0 | 0.0 | 0.00 | 0.00 | 0.00 | 76 | 1016.4 |
| 20260507064830 | 58 | 48 | 2.0 | 0.0 | 0.00 | 0.00 | 0.00 | 75 | 1016.4 |
| 20260507064806 | 58 | 48 | 2.0 | 0.0 | 0.00 | 0.00 | 0.00 | 76 | 1016.4 |
| 20260507064726 | 57 | 33 | 2.0 | 3.0 | 0.00 | 0.00 | 0.00 | 78 | 1017.3 |
| 20260507064559 | 58 | 48 | 2.0 | 0.0 | 0.00 | 0.00 | 0.00 | 75 | 1016.4 |
| 20260507064529 | 58 | 48 | 2.0 | 2.0 | 0.00 | 0.00 | 0.00 | 75 | 1016.4 |
| 20260507064225 | 58 | 6 | 1.0 | 4.0 | 0.00 | 0.00 | 0.00 | 77 | 1017.5 |
| 20260507063940 | 59 | 55 | 0.0 | 0.0 | 0.00 | 0.00 | 0.00 | 75 | 1016.5 |
| 20260507063858 | 59 | 55 | 0.0 | 0.0 | 0.00 | 0.00 | 0.00 | 75 | 1016.5 |
| 20260507063821 | 59 | 55 | 0.0 | 0.0 | 0.00 | 0.00 | 0.00 | 75 | 1016.5 |
| 20260507063744 | 59 | 55 | 0.0 | 0.0 | 0.00 | 0.00 | 0.00 | 75 | 1016.5 |
| 20260507063722 | 58 | 13 | 2.0 | 2.0 | 0.00 | 0.00 | 0.00 | 77 | 1017.5 |
| 20260507063654 | 59 | 55 | 0.0 | 0.0 | 0.00 | 0.00 | 0.00 | 75 | 1016.5 |
| 20260507063219 | 57 | 27 | 3.0 | 3.0 | 0.00 | 0.00 | 0.00 | 78 | 1017.4 |
| 20260507062944 | 59 | 68 | 0.0 | 0.0 | 0.00 | 0.00 | 0.00 | 74 | 1016.4 |
| 20260507062907 | 59 | 68 | 0.0 | 0.0 | 0.00 | 0.00 | 0.00 | 74 | 1016.4 |
| 20260507062830 | 59 | 68 | 0.0 | 0.0 | 0.00 | 0.00 | 0.00 | 74 | 1016.4 |
| 20260507062746 | 59 | 68 | 0.0 | 0.0 | 0.00 | 0.00 | 0.00 | 74 | 1016.4 |
| 20260507062716 | 58 | 62 | 0.0 | 2.0 | 0.00 | 0.00 | 0.00 | 78 | 1017.3 |
| 20260507062703 | 59 | 68 | 0.0 | 0.0 | 0.00 | 0.00 | 0.00 | 74 | 1016.4 |
| 20260507062613 | 59 | 68 | 0.0 | 0.0 | 0.00 | 0.00 | 0.00 | 74 | 1016.4 |
| 20260507062530 | 59 | 68 | 0.0 | 0.0 | 0.00 | 0.00 | 0.00 | 74 | 1016.4 |
| 20260507062453 | 59 | 68 | 0.0 | 0.0 | 0.00 | 0.00 | 0.00 | 74 | 1016.4 |
| 20260507062429 | 59 | 68 | 0.0 | 0.0 | 0.00 | 0.00 | 0.00 | 74 | 1016.4 |
| 20260507062359 | 59 | 68 | 0.0 | 1.0 | 0.00 | 0.00 | 0.00 | 74 | 1016.4 |
| 20260507062309 | 60 | 0 | 0.0 | 0.0 | 0.00 | 0.00 | 0.00 | 74 | 1016.4 |
| 20260507062213 | 58 | 57 | 1.0 | 2.0 | 0.00 | 0.00 | 0.00 | 77 | 1017.6 |
| 20260507062048 | 60 | 0 | 0.0 | 0.0 | 0.00 | 0.00 | 0.00 | 73 | 1016.4 |
| 20260507061958 | 60 | 0 | 0.0 | 0.0 | 0.00 | 0.00 | 0.00 | 73 | 1016.4 |
| 20260507061730 | 60 | 0 | 0.0 | 0.0 | 0.00 | 0.00 | 0.00 | 73 | 1016.4 |
| 20260507061711 | 58 | 111 | 1.0 | 2.0 | 0.00 | 0.00 | 0.00 | 77 | 1017.5 |
| 20260507061654 | 60 | 0 | 0.0 | 0.0 | 0.00 | 0.00 | 0.00 | 73 | 1016.4 |
| 20260507061440 | 60 | 0 | 0.0 | 0.0 | 0.00 | 0.00 | 0.00 | 73 | 1016.4 |
| 20260507061417 | 60 | 0 | 0.0 | 0.0 | 0.00 | 0.00 | 0.00 | 73 | 1016.4 |
| 20260507061346 | 60 | 0 | 0.0 | 0.0 | 0.00 | 0.00 | 0.00 | 73 | 1016.4 |
| 20260507061243 | 60 | 45 | 1.0 | 0.0 | 0.00 | 0.00 | 0.00 | 73 | 1016.5 |
| 20260507061209 | 58 | 41 | 2.0 | 2.0 | 0.00 | 0.00 | 0.00 | 77 | 1017.4 |
| 20260507061024 | 60 | 45 | 1.0 | 0.0 | 0.00 | 0.00 | 0.00 | 73 | 1016.5 |
| 20260507060947 | 60 | 45 | 1.0 | 0.0 | 0.00 | 0.00 | 0.00 | 73 | 1016.5 |
| 20260507060856 | 60 | 45 | 1.0 | 0.0 | 0.00 | 0.00 | 0.00 | 73 | 1016.5 |
| 20260507060819 | 60 | 45 | 1.0 | 0.0 | 0.00 | 0.00 | 0.00 | 73 | 1016.5 |
| 20260507060755 | 60 | 45 | 1.0 | 0.0 | 0.00 | 0.00 | 0.00 | 73 | 1016.5 |
| 20260507060725 | 60 | 45 | 1.0 | 0.0 | 0.00 | 0.00 | 0.00 | 72 | 1016.5 |
| 20260507060707 | 58 | 42 | 1.0 | 2.0 | 0.00 | 0.00 | 0.00 | 77 | 1017.5 |
| 20260507060648 | 60 | 45 | 1.0 | 0.0 | 0.00 | 0.00 | 0.00 | 72 | 1016.5 |
| 20260507060605 | 60 | 45 | 1.0 | 0.0 | 0.00 | 0.00 | 0.00 | 72 | 1016.5 |
| 20260507060541 | 60 | 45 | 1.0 | 0.0 | 0.00 | 0.00 | 0.00 | 72 | 1016.5 |
| 20260507060314 | 60 | 50 | 0.0 | 0.0 | 0.00 | 0.00 | 0.00 | 72 | 1016.2 |
| 20260507060231 | 60 | 50 | 0.0 | 0.0 | 0.00 | 0.00 | 0.00 | 72 | 1016.2 |
| 20260507060203 | 58 | 44 | 1.0 | 2.0 | 0.00 | 0.00 | 0.00 | 77 | 1017.5 |
| 20260507060005 | 60 | 50 | 0.0 | 0.0 | 0.00 | 0.00 | 0.00 | 72 | 1016.2 |
| 20260507055941 | 60 | 50 | 0.0 | 0.0 | 0.00 | 0.00 | 0.00 | 72 | 1016.2 |
| 20260507055910 | 61 | 50 | 0.0 | 0.0 | 0.00 | 0.00 | 0.00 | 72 | 1016.2 |
| 20260507055827 | 61 | 50 | 0.0 | 0.0 | 0.00 | 0.00 | 0.00 | 72 | 1016.2 |
| 20260507055659 | 58 | 36 | 1.0 | 2.0 | 0.00 | 0.00 | 0.00 | 76 | 1017.5 |
| 20260507055627 | 61 | 50 | 0.0 | 0.0 | 0.00 | 0.00 | 0.00 | 72 | 1016.2 |
| 20260507055419 | 61 | 50 | 0.0 | 0.0 | 0.00 | 0.00 | 0.00 | 71 | 1016.2 |
| 20260507055225 | 61 | 50 | 0.0 | 0.0 | 0.00 | 0.00 | 0.00 | 71 | 1016.2 |
| 20260507055155 | 59 | 25 | 0.0 | 3.0 | 0.00 | 0.00 | 0.00 | 76 | 1017.6 |
| 20260507054659 | 61 | 64 | 0.0 | 0.0 | 0.00 | 0.00 | 0.00 | 70 | 1016.3 |
| 20260507054651 | 59 | 66 | 0.0 | 2.0 | 0.00 | 0.00 | 0.00 | 75 | 1017.4 |
| 20260507054426 | 61 | 64 | 0.0 | 0.0 | 0.00 | 0.00 | 0.00 | 70 | 1016.3 |
| 20260507054402 | 61 | 64 | 0.0 | 0.0 | 0.00 | 0.00 | 0.00 | 70 | 1016.3 |
| 20260507054332 | 62 | 64 | 0.0 | 0.0 | 0.00 | 0.00 | 0.00 | 70 | 1016.3 |
| 20260507054236 | 62 | 64 | 0.0 | 0.0 | 0.00 | 0.00 | 0.00 | 70 | 1016.3 |
| 20260507054148 | 59 | 71 | 0.0 | 2.0 | 0.00 | 0.00 | 0.00 | 75 | 1017.4 |
| 20260507054146 | 62 | 64 | 0.0 | 0.0 | 0.00 | 0.00 | 0.00 | 70 | 1016.3 |
| 20260507054110 | 62 | 64 | 0.0 | 0.0 | 0.00 | 0.00 | 0.00 | 70 | 1016.3 |
| 20260507054046 | 62 | 64 | 0.0 | 0.0 | 0.00 | 0.00 | 0.00 | 70 | 1016.3 |
| 20260507054013 | 62 | 64 | 0.0 | 1.0 | 0.00 | 0.00 | 0.00 | 70 | 1016.3 |
| 20260507053936 | 62 | 30 | 0.0 | 0.0 | 0.00 | 0.00 | 0.00 | 69 | 1016.1 |
| 20260507053715 | 62 | 30 | 0.0 | 0.0 | 0.00 | 0.00 | 0.00 | 70 | 1016.1 |
| 20260507053646 | 59 | 63 | 0.0 | 2.0 | 0.00 | 0.00 | 0.00 | 74 | 1017.2 |
| 20260507053632 | 62 | 30 | 0.0 | 0.0 | 0.00 | 0.00 | 0.00 | 70 | 1016.1 |
| 20260507053608 | 62 | 30 | 0.0 | 0.0 | 0.00 | 0.00 | 0.00 | 70 | 1016.1 |
| 20260507053538 | 62 | 30 | 0.0 | 0.0 | 0.00 | 0.00 | 0.00 | 69 | 1016.1 |
| 20260507053448 | 62 | 30 | 0.0 | 0.0 | 0.00 | 0.00 | 0.00 | 69 | 1016.1 |
| 20260507053358 | 62 | 30 | 0.0 | 0.0 | 0.00 | 0.00 | 0.00 | 68 | 1016.1 |
| 20260507053322 | 62 | 30 | 0.0 | 0.0 | 0.00 | 0.00 | 0.00 | 68 | 1016.1 |
| 20260507053238 | 63 | 30 | 0.0 | 0.0 | 0.00 | 0.00 | 0.00 | 68 | 1016.1 |
| 20260507053207 | 63 | 30 | 0.0 | 0.0 | 0.00 | 0.00 | 0.00 | 69 | 1016.1 |
| 20260507053144 | 59 | 42 | 1.0 | 2.0 | 0.00 | 0.00 | 0.00 | 74 | 1017.3 |
| 20260507053137 | 63 | 30 | 0.0 | 0.0 | 0.00 | 0.00 | 0.00 | 68 | 1016.1 |
| 20260507053113 | 63 | 30 | 0.0 | 0.0 | 0.00 | 0.00 | 0.00 | 68 | 1016.1 |
| 20260507052840 | 63 | 33 | 1.0 | 0.0 | 0.00 | 0.00 | 0.00 | 68 | 1016.2 |
| 20260507052816 | 63 | 33 | 1.0 | 0.0 | 0.00 | 0.00 | 0.00 | 68 | 1016.2 |
| 20260507052746 | 63 | 33 | 1.0 | 0.0 | 0.00 | 0.00 | 0.00 | 67 | 1016.2 |
| 20260507052709 | 63 | 33 | 1.0 | 0.0 | 0.00 | 0.00 | 0.00 | 67 | 1016.2 |
| 20260507052642 | 60 | 81 | 0.0 | 0.0 | 0.00 | 0.00 | 0.00 | 73 | 1017.4 |
| 20260507052613 | 63 | 33 | 1.0 | 0.0 | 0.00 | 0.00 | 0.00 | 66 | 1016.2 |
| 20260507052530 | 63 | 33 | 1.0 | 0.0 | 0.00 | 0.00 | 0.00 | 66 | 1016.2 |
| 20260507052445 | 63 | 33 | 1.0 | 0.0 | 0.00 | 0.00 | 0.00 | 66 | 1016.2 |
| 20260507052402 | 64 | 33 | 1.0 | 0.0 | 0.00 | 0.00 | 0.00 | 66 | 1016.2 |
| 20260507052138 | 60 | 29 | 0.0 | 2.0 | 0.00 | 0.00 | 0.00 | 73 | 1017.4 |
| 20260507052129 | 64 | 33 | 1.0 | 0.0 | 0.00 | 0.00 | 0.00 | 66 | 1016.2 |
| 20260507052105 | 64 | 33 | 1.0 | 0.0 | 0.00 | 0.00 | 0.00 | 66 | 1016.2 |
| 20260507051844 | 64 | 81 | 3.0 | 0.0 | 0.00 | 0.00 | 0.00 | 66 | 1016.0 |
| 20260507051820 | 64 | 81 | 3.0 | 0.0 | 0.00 | 0.00 | 0.00 | 65 | 1016.0 |
| 20260507051756 | 64 | 81 | 3.0 | 0.0 | 0.00 | 0.00 | 0.00 | 66 | 1016.0 |
| 20260507051732 | 64 | 81 | 3.0 | 0.0 | 0.00 | 0.00 | 0.00 | 65 | 1016.0 |
| 20260507051708 | 64 | 81 | 3.0 | 0.0 | 0.00 | 0.00 | 0.00 | 66 | 1016.0 |
| 20260507051645 | 64 | 81 | 3.0 | 0.0 | 0.00 | 0.00 | 0.00 | 66 | 1016.0 |
| 20260507051636 | 60 | 89 | 0.0 | 2.0 | 0.00 | 0.00 | 0.00 | 73 | 1017.4 |
| 20260507051621 | 64 | 81 | 3.0 | 0.0 | 0.00 | 0.00 | 0.00 | 65 | 1016.0 |
| 20260507051557 | 64 | 81 | 3.0 | 0.0 | 0.00 | 0.00 | 0.00 | 65 | 1016.0 |
| 20260507051527 | 64 | 81 | 3.0 | 0.0 | 0.00 | 0.00 | 0.00 | 66 | 1016.0 |
| 20260507051450 | 64 | 81 | 3.0 | 0.0 | 0.00 | 0.00 | 0.00 | 66 | 1016.0 |
| 20260507051406 | 64 | 81 | 3.0 | 0.0 | 0.00 | 0.00 | 0.00 | 66 | 1016.0 |
| 20260507051329 | 64 | 81 | 3.0 | 0.0 | 0.00 | 0.00 | 0.00 | 66 | 1016.0 |
| 20260507051253 | 64 | 81 | 3.0 | 0.0 | 0.00 | 0.00 | 0.00 | 66 | 1016.0 |
| 20260507051132 | 60 | 73 | 0.0 | 3.0 | 0.00 | 0.00 | 0.00 | 72 | 1017.2 |
| 20260507051059 | 64 | 81 | 3.0 | 3.0 | 0.00 | 0.00 | 0.00 | 65 | 1016.0 |
| 20260507050852 | 64 | 117 | 3.0 | 0.0 | 0.00 | 0.00 | 0.00 | 66 | 1016.0 |
| 20260507050808 | 64 | 117 | 3.0 | 0.0 | 0.00 | 0.00 | 0.00 | 65 | 1016.0 |
| 20260507050629 | 60 | 9 | 0.0 | 2.0 | 0.00 | 0.00 | 0.00 | 72 | 1017.2 |
| 20260507050536 | 64 | 117 | 3.0 | 0.0 | 0.00 | 0.00 | 0.00 | 65 | 1016.0 |
| 20260507050459 | 64 | 117 | 3.0 | 0.0 | 0.00 | 0.00 | 0.00 | 65 | 1016.0 |
| 20260507050422 | 64 | 117 | 3.0 | 0.0 | 0.00 | 0.00 | 0.00 | 65 | 1016.0 |
| 20260507050345 | 64 | 117 | 3.0 | 0.0 | 0.00 | 0.00 | 0.00 | 65 | 1016.0 |
| 20260507050309 | 64 | 117 | 3.0 | 0.0 | 0.00 | 0.00 | 0.00 | 64 | 1016.0 |
| 20260507050245 | 64 | 117 | 3.0 | 0.0 | 0.00 | 0.00 | 0.00 | 65 | 1016.0 |
| 20260507050125 | 61 | 31 | 2.0 | 2.0 | 0.00 | 0.00 | 0.00 | 71 | 1017.3 |
| 20260507050038 | 64 | 117 | 3.0 | 0.0 | 0.00 | 0.00 | 0.00 | 64 | 1016.0 |
| 20260507050007 | 64 | 117 | 3.0 | 4.0 | 0.00 | 0.00 | 0.00 | 65 | 1016.0 |
| 20260507045917 | 64 | 99 | 3.0 | 0.0 | 0.00 | 0.00 | 0.00 | 65 | 1015.9 |
| 20260507045834 | 64 | 99 | 3.0 | 0.0 | 0.00 | 0.00 | 0.00 | 65 | 1015.9 |
| 20260507045757 | 64 | 99 | 3.0 | 0.0 | 0.00 | 0.00 | 0.00 | 64 | 1015.9 |
| 20260507045734 | 64 | 99 | 3.0 | 0.0 | 0.00 | 0.00 | 0.00 | 64 | 1015.9 |
| 20260507045710 | 64 | 99 | 3.0 | 0.0 | 0.00 | 0.00 | 0.00 | 65 | 1015.9 |
| 20260507045627 | 64 | 99 | 3.0 | 0.0 | 0.00 | 0.00 | 0.00 | 64 | 1015.9 |
| 20260507045623 | 61 | 41 | 2.0 | 2.0 | 0.00 | 0.00 | 0.00 | 70 | 1017.3 |
| 20260507045550 | 64 | 99 | 3.0 | 0.0 | 0.00 | 0.00 | 0.00 | 64 | 1015.9 |
| 20260507045507 | 64 | 99 | 3.0 | 0.0 | 0.00 | 0.00 | 0.00 | 64 | 1015.9 |
| 20260507045430 | 64 | 99 | 3.0 | 0.0 | 0.00 | 0.00 | 0.00 | 64 | 1015.9 |
| 20260507045353 | 64 | 99 | 3.0 | 0.0 | 0.00 | 0.00 | 0.00 | 64 | 1015.9 |
| 20260507045329 | 64 | 99 | 3.0 | 0.0 | 0.00 | 0.00 | 0.00 | 64 | 1015.9 |
| 20260507045259 | 65 | 99 | 3.0 | 3.0 | 0.00 | 0.00 | 0.00 | 64 | 1015.9 |
| 20260507045210 | 65 | 147 | 0.0 | 0.0 | 0.00 | 0.00 | 0.00 | 64 | 1015.9 |
| 20260507045133 | 65 | 147 | 0.0 | 0.0 | 0.00 | 0.00 | 0.00 | 64 | 1015.9 |
| 20260507045119 | 62 | 38 | 0.0 | 2.0 | 0.00 | 0.00 | 0.00 | 70 | 1017.2 |
| 20260507045050 | 65 | 147 | 0.0 | 0.0 | 0.00 | 0.00 | 0.00 | 64 | 1015.9 |
| 20260507044841 | 64 | 147 | 0.0 | 0.0 | 0.00 | 0.00 | 0.00 | 64 | 1015.9 |
| 20260507044811 | 64 | 147 | 0.0 | 0.0 | 0.00 | 0.00 | 0.00 | 65 | 1015.9 |
| 20260507044734 | 64 | 147 | 0.0 | 0.0 | 0.00 | 0.00 | 0.00 | 65 | 1015.9 |
| 20260507044658 | 64 | 147 | 0.0 | 0.0 | 0.00 | 0.00 | 0.00 | 65 | 1015.9 |
| 20260507044628 | 64 | 147 | 0.0 | 0.0 | 0.00 | 0.00 | 0.00 | 64 | 1015.9 |
| 20260507044616 | 62 | 89 | 0.0 | 0.0 | 0.00 | 0.00 | 0.00 | 70 | 1017.1 |
| 20260507044414 | 64 | 147 | 0.0 | 0.0 | 0.00 | 0.00 | 0.00 | 65 | 1015.9 |
| 20260507044350 | 64 | 147 | 0.0 | 0.0 | 0.00 | 0.00 | 0.00 | 65 | 1015.9 |
| 20260507044320 | 64 | 147 | 0.0 | 1.0 | 0.00 | 0.00 | 0.00 | 66 | 1015.9 |
| 20260507044113 | 63 | 39 | 0.0 | 2.0 | 0.00 | 0.00 | 0.00 | 69 | 1017.3 |
| 20260507043720 | 64 | 89 | 0.0 | 0.0 | 0.00 | 0.00 | 0.00 | 66 | 1015.8 |
| 20260507043624 | 64 | 89 | 0.0 | 0.0 | 0.00 | 0.00 | 0.00 | 66 | 1015.8 |
| 20260507043609 | 63 | 82 | 0.0 | 2.0 | 0.00 | 0.00 | 0.00 | 66 | 1017.2 |
| 20260507043540 | 64 | 89 | 0.0 | 0.0 | 0.00 | 0.00 | 0.00 | 67 | 1015.8 |
| 20260507043504 | 64 | 89 | 0.0 | 0.0 | 0.00 | 0.00 | 0.00 | 67 | 1015.8 |
| 20260507043427 | 64 | 89 | 0.0 | 0.0 | 0.00 | 0.00 | 0.00 | 67 | 1015.8 |
| 20260507043220 | 64 | 89 | 0.0 | 0.0 | 0.00 | 0.00 | 0.00 | 67 | 1015.8 |
| 20260507043106 | 64 | 89 | 0.0 | 2.0 | 0.00 | 0.00 | 0.00 | 66 | 1017.1 |
| 20260507042955 | 64 | 82 | 1.0 | 0.0 | 0.00 | 0.00 | 0.00 | 67 | 1015.7 |
| 20260507042912 | 64 | 82 | 1.0 | 0.0 | 0.00 | 0.00 | 0.00 | 67 | 1015.7 |
| 20260507042848 | 64 | 82 | 1.0 | 0.0 | 0.00 | 0.00 | 0.00 | 67 | 1015.7 |
| 20260507042809 | 64 | 82 | 1.0 | 0.0 | 0.00 | 0.00 | 0.00 | 66 | 1015.7 |
| 20260507042732 | 64 | 82 | 1.0 | 0.0 | 0.00 | 0.00 | 0.00 | 66 | 1015.7 |
| 20260507042655 | 64 | 82 | 1.0 | 0.0 | 0.00 | 0.00 | 0.00 | 66 | 1015.7 |
| 20260507042602 | 64 | 80 | 2.0 | 3.0 | 0.00 | 0.00 | 0.00 | 66 | 1017.2 |
| 20260507042114 | 64 | 82 | 1.0 | 0.0 | 0.00 | 0.00 | 0.00 | 66 | 1015.7 |
| 20260507042058 | 64 | 68 | 1.0 | 3.0 | 0.00 | 0.00 | 0.00 | 66 | 1017.0 |
| 20260507042050 | 64 | 82 | 1.0 | 0.0 | 0.00 | 0.00 | 0.00 | 66 | 1015.7 |
| 20260507042019 | 64 | 82 | 1.0 | 2.0 | 0.00 | 0.00 | 0.00 | 66 | 1015.7 |
| 20260507041943 | 64 | 129 | 0.0 | 0.0 | 0.00 | 0.00 | 0.00 | 66 | 1015.5 |
| 20260507041911 | 64 | 129 | 0.0 | 0.0 | 0.00 | 0.00 | 0.00 | 65 | 1015.5 |
| 20260507041835 | 64 | 129 | 0.0 | 0.0 | 0.00 | 0.00 | 0.00 | 65 | 1015.5 |
| 20260507041615 | 64 | 129 | 0.0 | 0.0 | 0.00 | 0.00 | 0.00 | 65 | 1015.5 |
| 20260507041555 | 64 | 68 | 1.0 | 3.0 | 0.00 | 0.00 | 0.00 | 65 | 1017.0 |
| 20260507041538 | 64 | 129 | 0.0 | 0.0 | 0.00 | 0.00 | 0.00 | 65 | 1015.5 |
| 20260507041448 | 64 | 129 | 0.0 | 0.0 | 0.00 | 0.00 | 0.00 | 65 | 1015.5 |
| 20260507041411 | 64 | 129 | 0.0 | 0.0 | 0.00 | 0.00 | 0.00 | 65 | 1015.5 |
| 20260507041348 | 64 | 129 | 0.0 | 0.0 | 0.00 | 0.00 | 0.00 | 65 | 1015.5 |
| 20260507041324 | 64 | 129 | 0.0 | 0.0 | 0.00 | 0.00 | 0.00 | 64 | 1015.5 |
| 20260507041241 | 64 | 129 | 0.0 | 0.0 | 0.00 | 0.00 | 0.00 | 64 | 1015.5 |
| 20260507041211 | 64 | 129 | 0.0 | 0.0 | 0.00 | 0.00 | 0.00 | 65 | 1015.5 |
| 20260507041140 | 64 | 129 | 0.0 | 0.0 | 0.00 | 0.00 | 0.00 | 65 | 1015.5 |
| 20260507041103 | 64 | 37 | 0.0 | 0.0 | 0.00 | 0.00 | 0.00 | 65 | 1015.5 |
| 20260507041052 | 64 | 157 | 3.0 | 4.0 | 0.00 | 0.00 | 0.00 | 64 | 1016.9 |
| 20260507041019 | 64 | 37 | 0.0 | 0.0 | 0.00 | 0.00 | 0.00 | 64 | 1015.5 |
| 20260507040942 | 64 | 37 | 0.0 | 0.0 | 0.00 | 0.00 | 0.00 | 64 | 1015.5 |
| 20260507040905 | 64 | 37 | 0.0 | 0.0 | 0.00 | 0.00 | 0.00 | 64 | 1015.5 |
| 20260507040712 | 65 | 37 | 0.0 | 0.0 | 0.00 | 0.00 | 0.00 | 64 | 1015.5 |
| 20260507040635 | 65 | 37 | 0.0 | 0.0 | 0.00 | 0.00 | 0.00 | 64 | 1015.5 |
| 20260507040558 | 65 | 37 | 0.0 | 0.0 | 0.00 | 0.00 | 0.00 | 64 | 1015.5 |
| 20260507040548 | 64 | 49 | 0.0 | 2.0 | 0.00 | 0.00 | 0.00 | 65 | 1017.0 |
| 20260507040521 | 65 | 37 | 0.0 | 0.0 | 0.00 | 0.00 | 0.00 | 64 | 1015.5 |
| 20260507040431 | 65 | 37 | 0.0 | 0.0 | 0.00 | 0.00 | 0.00 | 64 | 1015.5 |
| 20260507040341 | 65 | 37 | 0.0 | 0.0 | 0.00 | 0.00 | 0.00 | 64 | 1015.5 |
| 20260507040318 | 65 | 37 | 0.0 | 0.0 | 0.00 | 0.00 | 0.00 | 64 | 1015.5 |
| 20260507040247 | 65 | 37 | 0.0 | 0.0 | 0.00 | 0.00 | 0.00 | 64 | 1015.5 |
| 20260507040044 | 64 | 89 | 2.0 | 4.0 | 0.00 | 0.00 | 0.00 | 64 | 1017.0 |
| 20260507035817 | 65 | 36 | 0.0 | 0.0 | 0.00 | 0.00 | 0.00 | 64 | 1015.3 |
| 20260507035734 | 65 | 36 | 0.0 | 0.0 | 0.00 | 0.00 | 0.00 | 63 | 1015.3 |
| 20260507035644 | 65 | 36 | 0.0 | 0.0 | 0.00 | 0.00 | 0.00 | 63 | 1015.3 |
| 20260507035608 | 65 | 36 | 0.0 | 0.0 | 0.00 | 0.00 | 0.00 | 63 | 1015.3 |
| 20260507035541 | 64 | 126 | 3.0 | 4.0 | 0.00 | 0.00 | 0.00 | 64 | 1017.0 |
| 20260507035531 | 65 | 36 | 0.0 | 0.0 | 0.00 | 0.00 | 0.00 | 63 | 1015.3 |
| 20260507035448 | 65 | 36 | 0.0 | 0.0 | 0.00 | 0.00 | 0.00 | 63 | 1015.3 |
| 20260507035404 | 65 | 36 | 0.0 | 0.0 | 0.00 | 0.00 | 0.00 | 63 | 1015.3 |
| 20260507035334 | 65 | 36 | 0.0 | 0.0 | 0.00 | 0.00 | 0.00 | 62 | 1015.3 |
| 20260507035306 | 65 | 36 | 0.0 | 1.0 | 0.00 | 0.00 | 0.00 | 62 | 1015.3 |
| 20260507035226 | 65 | 4 | 0.0 | 0.0 | 0.00 | 0.00 | 0.00 | 63 | 1015.2 |
| 20260507035038 | 65 | 4 | 0.0 | 0.0 | 0.00 | 0.00 | 0.00 | 62 | 1015.2 |
| 20260507034956 | 65 | 4 | 0.0 | 0.0 | 0.00 | 0.00 | 0.00 | 63 | 1015.2 |
| 20260507034920 | 65 | 4 | 0.0 | 0.0 | 0.00 | 0.00 | 0.00 | 63 | 1015.2 |
| 20260507034837 | 65 | 4 | 0.0 | 0.0 | 0.00 | 0.00 | 0.00 | 62 | 1015.2 |
| 20260507034800 | 65 | 4 | 0.0 | 0.0 | 0.00 | 0.00 | 0.00 | 62 | 1015.2 |
| 20260507034534 | 66 | 4 | 0.0 | 0.0 | 0.00 | 0.00 | 0.00 | 62 | 1015.2 |
| 20260507034457 | 66 | 4 | 0.0 | 0.0 | 0.00 | 0.00 | 0.00 | 62 | 1015.2 |
| 20260507034420 | 66 | 4 | 0.0 | 0.0 | 0.00 | 0.00 | 0.00 | 62 | 1015.2 |
| 20260507034356 | 66 | 4 | 0.0 | 0.0 | 0.00 | 0.00 | 0.00 | 62 | 1015.2 |
| 20260507034326 | 66 | 4 | 0.0 | 1.0 | 0.00 | 0.00 | 0.00 | 62 | 1015.2 |
| 20260507034235 | 66 | 11 | 2.0 | 0.0 | 0.00 | 0.00 | 0.00 | 62 | 1015.0 |
| 20260507034159 | 66 | 11 | 2.0 | 0.0 | 0.00 | 0.00 | 0.00 | 62 | 1015.0 |
| 20260507034135 | 66 | 11 | 2.0 | 0.0 | 0.00 | 0.00 | 0.00 | 62 | 1015.0 |
| 20260507034103 | 66 | 11 | 2.0 | 0.0 | 0.00 | 0.00 | 0.00 | 61 | 1015.0 |
| 20260507034032 | 64 | 89 | 0.0 | 1.0 | 0.00 | 0.00 | 0.00 | 67 | 1016.6 |
| 20260507033856 | 66 | 11 | 2.0 | 0.0 | 0.00 | 0.00 | 0.00 | 61 | 1015.0 |
| 20260507033832 | 66 | 11 | 2.0 | 0.0 | 0.00 | 0.00 | 0.00 | 62 | 1015.0 |
| 20260507033808 | 66 | 11 | 2.0 | 0.0 | 0.00 | 0.00 | 0.00 | 61 | 1015.0 |
| 20260507033600 | 66 | 11 | 2.0 | 0.0 | 0.00 | 0.00 | 0.00 | 61 | 1015.0 |
| 20260507033530 | 64 | 49 | 2.0 | 2.0 | 0.00 | 0.00 | 0.00 | 66 | 1016.8 |
| 20260507033511 | 66 | 11 | 2.0 | 0.0 | 0.00 | 0.00 | 0.00 | 61 | 1015.0 |
| 20260507033309 | 66 | 11 | 2.0 | 0.0 | 0.00 | 0.00 | 0.00 | 61 | 1015.0 |
| 20260507033239 | 66 | 11 | 2.0 | 2.0 | 0.00 | 0.00 | 0.00 | 61 | 1015.0 |
| 20260507033147 | 66 | 324 | 2.0 | 0.0 | 0.00 | 0.00 | 0.00 | 61 | 1014.8 |
| 20260507033110 | 66 | 324 | 2.0 | 0.0 | 0.00 | 0.00 | 0.00 | 61 | 1014.8 |
| 20260507033046 | 66 | 324 | 2.0 | 0.0 | 0.00 | 0.00 | 0.00 | 61 | 1014.8 |
| 20260507033027 | 64 | 98 | 1.0 | 2.0 | 0.00 | 0.00 | 0.00 | 66 | 1016.4 |
| 20260507033014 | 67 | 324 | 2.0 | 0.0 | 0.00 | 0.00 | 0.00 | 61 | 1014.8 |
| 20260507032950 | 67 | 324 | 2.0 | 0.0 | 0.00 | 0.00 | 0.00 | 60 | 1014.8 |
| 20260507032920 | 67 | 324 | 2.0 | 0.0 | 0.00 | 0.00 | 0.00 | 61 | 1014.8 |
| 20260507032843 | 67 | 324 | 2.0 | 0.0 | 0.00 | 0.00 | 0.00 | 61 | 1014.8 |
| 20260507032615 | 67 | 324 | 2.0 | 0.0 | 0.00 | 0.00 | 0.00 | 61 | 1014.8 |
| 20260507032538 | 67 | 324 | 2.0 | 0.0 | 0.00 | 0.00 | 0.00 | 60 | 1014.8 |
| 20260507032524 | 64 | 322 | 0.0 | 3.0 | 0.00 | 0.00 | 0.00 | 65 | 1016.5 |
| 20260507032514 | 67 | 324 | 2.0 | 0.0 | 0.00 | 0.00 | 0.00 | 60 | 1014.8 |
| 20260507032450 | 67 | 324 | 2.0 | 0.0 | 0.00 | 0.00 | 0.00 | 61 | 1014.8 |
| 20260507032420 | 67 | 324 | 2.0 | 0.0 | 0.00 | 0.00 | 0.00 | 60 | 1014.8 |
| 20260507032350 | 67 | 324 | 2.0 | 3.0 | 0.00 | 0.00 | 0.00 | 60 | 1014.8 |
| 20260507032300 | 67 | 352 | 0.0 | 0.0 | 0.00 | 0.00 | 0.00 | 60 | 1015.0 |
| 20260507032217 | 67 | 352 | 0.0 | 0.0 | 0.00 | 0.00 | 0.00 | 60 | 1015.0 |
| 20260507032140 | 67 | 352 | 0.0 | 0.0 | 0.00 | 0.00 | 0.00 | 60 | 1015.0 |
| 20260507032057 | 67 | 352 | 0.0 | 0.0 | 0.00 | 0.00 | 0.00 | 60 | 1015.0 |
| 20260507032020 | 64 | 129 | 0.0 | 1.0 | 0.00 | 0.00 | 0.00 | 65 | 1016.3 |
| 20260507031831 | 67 | 352 | 0.0 | 0.0 | 0.00 | 0.00 | 0.00 | 60 | 1015.0 |
| 20260507031754 | 67 | 352 | 0.0 | 0.0 | 0.00 | 0.00 | 0.00 | 60 | 1015.0 |
| 20260507031703 | 67 | 352 | 0.0 | 0.0 | 0.00 | 0.00 | 0.00 | 60 | 1015.0 |
| 20260507031626 | 67 | 352 | 0.0 | 0.0 | 0.00 | 0.00 | 0.00 | 60 | 1015.0 |
| 20260507031603 | 67 | 352 | 0.0 | 0.0 | 0.00 | 0.00 | 0.00 | 60 | 1015.0 |
| 20260507031532 | 67 | 352 | 0.0 | 2.0 | 0.00 | 0.00 | 0.00 | 60 | 1015.0 |
| 20260507031516 | 65 | 49 | 0.0 | 0.0 | 0.00 | 0.00 | 0.00 | 64 | 1016.5 |
| 20260507031443 | 68 | 350 | 0.0 | 0.0 | 0.00 | 0.00 | 0.00 | 59 | 1014.5 |
| 20260507031406 | 68 | 350 | 0.0 | 0.0 | 0.00 | 0.00 | 0.00 | 59 | 1014.5 |
| 20260507031316 | 68 | 350 | 0.0 | 0.0 | 0.00 | 0.00 | 0.00 | 59 | 1014.5 |
| 20260507031240 | 68 | 350 | 0.0 | 0.0 | 0.00 | 0.00 | 0.00 | 59 | 1014.5 |
| 20260507031014 | 65 | 41 | 0.0 | 1.0 | 0.00 | 0.00 | 0.00 | 64 | 1016.3 |
| 20260507031007 | 68 | 350 | 0.0 | 0.0 | 0.00 | 0.00 | 0.00 | 59 | 1014.5 |
| 20260507030917 | 68 | 350 | 0.0 | 0.0 | 0.00 | 0.00 | 0.00 | 59 | 1014.5 |
| 20260507030841 | 68 | 350 | 0.0 | 0.0 | 0.00 | 0.00 | 0.00 | 59 | 1014.5 |
| 20260507030634 | 69 | 350 | 0.0 | 0.0 | 0.00 | 0.00 | 0.00 | 59 | 1014.5 |
| 20260507030603 | 69 | 350 | 0.0 | 2.0 | 0.00 | 0.00 | 0.00 | 58 | 1014.5 |
| 20260507030510 | 65 | 129 | 0.0 | 0.0 | 0.00 | 0.00 | 0.00 | 63 | 1016.0 |
| 20260507030506 | 69 | 17 | 1.0 | 0.0 | 0.00 | 0.00 | 0.00 | 58 | 1014.5 |
| 20260507030443 | 69 | 17 | 1.0 | 0.0 | 0.00 | 0.00 | 0.00 | 59 | 1014.5 |
| 20260507030400 | 69 | 17 | 1.0 | 0.0 | 0.00 | 0.00 | 0.00 | 58 | 1014.5 |
| 20260507030316 | 69 | 17 | 1.0 | 0.0 | 0.00 | 0.00 | 0.00 | 58 | 1014.5 |
| 20260507030042 | 69 | 17 | 1.0 | 0.0 | 0.00 | 0.00 | 0.00 | 58 | 1014.5 |
| 20260507030008 | 65 | 350 | 0.0 | 2.0 | 0.00 | 0.00 | 0.00 | 62 | 1016.3 |
| 20260507030005 | 69 | 17 | 1.0 | 0.0 | 0.00 | 0.00 | 0.00 | 58 | 1014.5 |
| 20260507025929 | 69 | 17 | 1.0 | 0.0 | 0.00 | 0.00 | 0.00 | 58 | 1014.5 |
| 20260507025845 | 69 | 17 | 1.0 | 0.0 | 0.00 | 0.00 | 0.00 | 58 | 1014.5 |
| 20260507025809 | 69 | 17 | 1.0 | 0.0 | 0.00 | 0.00 | 0.00 | 58 | 1014.5 |
| 20260507025738 | 69 | 17 | 1.0 | 0.0 | 0.00 | 0.00 | 0.00 | 57 | 1014.5 |
| 20260507025708 | 69 | 17 | 1.0 | 2.0 | 0.00 | 0.00 | 0.00 | 58 | 1014.5 |
| 20260507025504 | 66 | 9 | 1.0 | 3.0 | 0.00 | 0.00 | 0.00 | 62 | 1015.9 |
| 20260507025440 | 69 | 289 | 0.0 | 0.0 | 0.00 | 0.00 | 0.00 | 58 | 1014.6 |
| 20260507025417 | 69 | 289 | 0.0 | 0.0 | 0.00 | 0.00 | 0.00 | 57 | 1014.6 |
| 20260507025340 | 69 | 289 | 0.0 | 0.0 | 0.00 | 0.00 | 0.00 | 58 | 1014.6 |
| 20260507025316 | 69 | 289 | 0.0 | 0.0 | 0.00 | 0.00 | 0.00 | 58 | 1014.6 |
| 20260507025246 | 69 | 289 | 0.0 | 0.0 | 0.00 | 0.00 | 0.00 | 57 | 1014.6 |
| 20260507025031 | 69 | 289 | 0.0 | 0.0 | 0.00 | 0.00 | 0.00 | 57 | 1014.6 |
| 20260507025002 | 66 | 18 | 1.0 | 2.0 | 0.00 | 0.00 | 0.00 | 62 | 1015.9 |
| 20260507024948 | 70 | 289 | 0.0 | 0.0 | 0.00 | 0.00 | 0.00 | 57 | 1014.6 |
| 20260507024911 | 70 | 289 | 0.0 | 0.0 | 0.00 | 0.00 | 0.00 | 57 | 1014.6 |
| 20260507024835 | 70 | 289 | 0.0 | 0.0 | 0.00 | 0.00 | 0.00 | 57 | 1014.6 |
| 20260507024811 | 70 | 289 | 0.0 | 0.0 | 0.00 | 0.00 | 0.00 | 57 | 1014.6 |
| 20260507024741 | 70 | 289 | 0.0 | 1.0 | 0.00 | 0.00 | 0.00 | 57 | 1014.6 |
| 20260507024459 | 66 | 89 | 0.0 | 2.0 | 0.00 | 0.00 | 0.00 | 62 | 1016.0 |
| 20260507024448 | 70 | 292 | 2.0 | 0.0 | 0.00 | 0.00 | 0.00 | 57 | 1014.6 |
| 20260507024045 | 70 | 292 | 2.0 | 0.0 | 0.00 | 0.00 | 0.00 | 57 | 1014.6 |
| 20260507023955 | 66 | 40 | 2.0 | 2.0 | 0.00 | 0.00 | 0.00 | 61 | 1015.7 |
| 20260507023530 | 70 | 292 | 2.0 | 0.0 | 0.00 | 0.00 | 0.00 | 57 | 1014.6 |
| 20260507023452 | 67 | 9 | 2.0 | 4.0 | 0.00 | 0.00 | 0.00 | 61 | 1015.9 |
| 20260507023446 | 70 | 292 | 2.0 | 0.0 | 0.00 | 0.00 | 0.00 | 57 | 1014.6 |
| 20260507023251 | 70 | 292 | 2.0 | 3.0 | 0.00 | 0.00 | 0.00 | 56 | 1014.6 |
| 20260507023202 | 70 | 276 | 0.0 | 0.0 | 0.00 | 0.00 | 0.00 | 57 | 1014.5 |
| 20260507023138 | 70 | 276 | 0.0 | 0.0 | 0.00 | 0.00 | 0.00 | 57 | 1014.5 |
| 20260507023105 | 70 | 276 | 0.0 | 0.0 | 0.00 | 0.00 | 0.00 | 56 | 1014.5 |
| 20260507023022 | 70 | 276 | 0.0 | 0.0 | 0.00 | 0.00 | 0.00 | 56 | 1014.5 |
| 20260507022949 | 67 | 352 | 0.0 | 2.0 | 0.00 | 0.00 | 0.00 | 60 | 1015.8 |
| 20260507022828 | 71 | 276 | 0.0 | 0.0 | 0.00 | 0.00 | 0.00 | 56 | 1014.5 |
| 20260507022751 | 71 | 276 | 0.0 | 0.0 | 0.00 | 0.00 | 0.00 | 56 | 1014.5 |
| 20260507022702 | 71 | 276 | 0.0 | 0.0 | 0.00 | 0.00 | 0.00 | 56 | 1014.5 |
| 20260507022612 | 71 | 276 | 0.0 | 0.0 | 0.00 | 0.00 | 0.00 | 56 | 1014.5 |
| 20260507022548 | 71 | 276 | 0.0 | 0.0 | 0.00 | 0.00 | 0.00 | 56 | 1014.5 |
| 20260507022447 | 67 | 102 | 0.0 | 2.0 | 0.00 | 0.00 | 0.00 | 60 | 1015.7 |
| 20260507022314 | 71 | 276 | 0.0 | 0.0 | 0.00 | 0.00 | 0.00 | 55 | 1014.5 |
| 20260507022250 | 71 | 276 | 0.0 | 0.0 | 0.00 | 0.00 | 0.00 | 55 | 1014.5 |
| 20260507022219 | 71 | 276 | 0.0 | 2.0 | 0.00 | 0.00 | 0.00 | 55 | 1014.5 |
| 20260507021942 | 68 | 82 | 3.0 | 3.0 | 0.00 | 0.00 | 0.00 | 60 | 1015.5 |
| 20260507021744 | 71 | 279 | 1.0 | 0.0 | 0.00 | 0.00 | 0.00 | 55 | 1014.4 |
| 20260507021701 | 71 | 279 | 1.0 | 0.0 | 0.00 | 0.00 | 0.00 | 55 | 1014.4 |
| 20260507021624 | 71 | 279 | 1.0 | 0.0 | 0.00 | 0.00 | 0.00 | 55 | 1014.4 |
| 20260507021550 | 72 | 279 | 1.0 | 0.0 | 0.00 | 0.00 | 0.00 | 54 | 1014.4 |
| 20260507021437 | 68 | 4 | 0.0 | 3.0 | 0.00 | 0.00 | 0.00 | 59 | 1015.5 |
| 20260507021330 | 72 | 279 | 1.0 | 0.0 | 0.00 | 0.00 | 0.00 | 55 | 1014.4 |
| 20260507021300 | 72 | 279 | 1.0 | 0.0 | 0.00 | 0.00 | 0.00 | 54 | 1014.4 |
| 20260507021209 | 72 | 279 | 1.0 | 0.0 | 0.00 | 0.00 | 0.00 | 54 | 1014.4 |
| 20260507021119 | 72 | 279 | 1.0 | 0.0 | 0.00 | 0.00 | 0.00 | 54 | 1014.4 |
| 20260507021055 | 72 | 279 | 1.0 | 0.0 | 0.00 | 0.00 | 0.00 | 54 | 1014.4 |
| 20260507021024 | 73 | 279 | 1.0 | 3.0 | 0.00 | 0.00 | 0.00 | 53 | 1014.4 |
| 20260507020948 | 73 | 49 | 0.0 | 0.0 | 0.00 | 0.00 | 0.00 | 54 | 1014.3 |
| 20260507020935 | 69 | 55 | 0.0 | 3.0 | 0.00 | 0.00 | 0.00 | 58 | 1015.6 |
| 20260507020735 | 73 | 49 | 0.0 | 0.0 | 0.00 | 0.00 | 0.00 | 53 | 1014.3 |
| 20260507020658 | 73 | 49 | 0.0 | 0.0 | 0.00 | 0.00 | 0.00 | 53 | 1014.3 |
| 20260507020628 | 73 | 49 | 0.0 | 0.0 | 0.00 | 0.00 | 0.00 | 52 | 1014.3 |
| 20260507020558 | 73 | 49 | 0.0 | 0.0 | 0.00 | 0.00 | 0.00 | 53 | 1014.3 |
| 20260507020507 | 73 | 49 | 0.0 | 0.0 | 0.00 | 0.00 | 0.00 | 53 | 1014.3 |
| 20260507020432 | 69 | 324 | 1.0 | 2.0 | 0.00 | 0.00 | 0.00 | 58 | 1015.5 |
| 20260507020430 | 73 | 49 | 0.0 | 0.0 | 0.00 | 0.00 | 0.00 | 53 | 1014.3 |
| 20260507020321 | 73 | 49 | 0.0 | 0.0 | 0.00 | 0.00 | 0.00 | 53 | 1014.3 |
| 20260507020238 | 73 | 49 | 0.0 | 0.0 | 0.00 | 0.00 | 0.00 | 53 | 1014.3 |
| 20260507020208 | 73 | 49 | 0.0 | 0.0 | 0.00 | 0.00 | 0.00 | 53 | 1014.3 |
| 20260507020137 | 73 | 49 | 0.0 | 0.0 | 0.00 | 0.00 | 0.00 | 54 | 1014.3 |
| 20260507015943 | 73 | 49 | 0.0 | 2.0 | 0.00 | 0.00 | 0.00 | 54 | 1014.3 |
| 20260507015929 | 69 | 182 | 0.0 | 2.0 | 0.00 | 0.00 | 0.00 | 57 | 1015.6 |
| 20260507015853 | 73 | 316 | 0.0 | 0.0 | 0.00 | 0.00 | 0.00 | 54 | 1014.5 |
| 20260507015823 | 73 | 316 | 0.0 | 0.0 | 0.00 | 0.00 | 0.00 | 53 | 1014.5 |
| 20260507015800 | 73 | 316 | 0.0 | 0.0 | 0.00 | 0.00 | 0.00 | 54 | 1014.5 |
| 20260507015736 | 73 | 316 | 0.0 | 0.0 | 0.00 | 0.00 | 0.00 | 54 | 1014.5 |
| 20260507015712 | 73 | 316 | 0.0 | 0.0 | 0.00 | 0.00 | 0.00 | 53 | 1014.5 |
| 20260507015623 | 73 | 316 | 0.0 | 0.0 | 0.00 | 0.00 | 0.00 | 53 | 1014.5 |
| 20260507015546 | 73 | 316 | 0.0 | 0.0 | 0.00 | 0.00 | 0.00 | 53 | 1014.5 |
| 20260507015509 | 73 | 316 | 0.0 | 0.0 | 0.00 | 0.00 | 0.00 | 53 | 1014.5 |
| 20260507015427 | 69 | 15 | 0.0 | 2.0 | 0.00 | 0.00 | 0.00 | 57 | 1015.5 |
| 20260507015125 | 73 | 316 | 0.0 | 0.0 | 0.00 | 0.00 | 0.00 | 54 | 1014.5 |
| 20260507015101 | 73 | 316 | 0.0 | 0.0 | 0.00 | 0.00 | 0.00 | 53 | 1014.5 |
| 20260507015037 | 73 | 316 | 0.0 | 0.0 | 0.00 | 0.00 | 0.00 | 54 | 1014.5 |
| 20260507015005 | 73 | 316 | 0.0 | 0.0 | 0.00 | 0.00 | 0.00 | 53 | 1014.5 |
| 20260507014941 | 73 | 316 | 0.0 | 0.0 | 0.00 | 0.00 | 0.00 | 53 | 1014.5 |
| 20260507014924 | 70 | 230 | 0.0 | 3.0 | 0.00 | 0.00 | 0.00 | 57 | 1015.4 |
| 20260507014910 | 73 | 316 | 0.0 | 2.0 | 0.00 | 0.00 | 0.00 | 54 | 1014.5 |
| 20260507014820 | 73 | 228 | 2.0 | 0.0 | 0.00 | 0.00 | 0.00 | 54 | 1014.5 |
| 20260507014744 | 73 | 228 | 2.0 | 0.0 | 0.00 | 0.00 | 0.00 | 54 | 1014.5 |
| 20260507014647 | 73 | 228 | 2.0 | 0.0 | 0.00 | 0.00 | 0.00 | 53 | 1014.5 |
| 20260507014624 | 73 | 228 | 2.0 | 0.0 | 0.00 | 0.00 | 0.00 | 54 | 1014.5 |
| 20260507014553 | 73 | 228 | 2.0 | 0.0 | 0.00 | 0.00 | 0.00 | 53 | 1014.5 |
| 20260507014420 | 70 | 282 | 0.0 | 3.0 | 0.00 | 0.00 | 0.00 | 57 | 1015.4 |
| 20260507014326 | 73 | 228 | 2.0 | 0.0 | 0.00 | 0.00 | 0.00 | 53 | 1014.5 |
| 20260507014256 | 73 | 228 | 2.0 | 0.0 | 0.00 | 0.00 | 0.00 | 53 | 1014.5 |
| 20260507014226 | 74 | 228 | 2.0 | 0.0 | 0.00 | 0.00 | 0.00 | 52 | 1014.5 |
| 20260507014150 | 74 | 228 | 2.0 | 0.0 | 0.00 | 0.00 | 0.00 | 52 | 1014.5 |
| 20260507014126 | 74 | 228 | 2.0 | 0.0 | 0.00 | 0.00 | 0.00 | 52 | 1014.5 |
| 20260507014055 | 74 | 228 | 2.0 | 0.0 | 0.00 | 0.00 | 0.00 | 53 | 1014.5 |
| 20260507014031 | 74 | 228 | 2.0 | 0.0 | 0.00 | 0.00 | 0.00 | 53 | 1014.5 |
| 20260507014000 | 73 | 228 | 2.0 | 2.0 | 0.00 | 0.00 | 0.00 | 53 | 1014.5 |
| 20260507013917 | 70 | 253 | 3.0 | 3.0 | 0.00 | 0.00 | 0.00 | 56 | 1015.4 |
| 20260507013910 | 73 | 33 | 2.0 | 0.0 | 0.00 | 0.00 | 0.00 | 53 | 1014.3 |
| 20260507013847 | 73 | 33 | 2.0 | 0.0 | 0.00 | 0.00 | 0.00 | 53 | 1014.3 |
| 20260507013817 | 74 | 33 | 2.0 | 0.0 | 0.00 | 0.00 | 0.00 | 53 | 1014.3 |
| 20260507013739 | 74 | 33 | 2.0 | 0.0 | 0.00 | 0.00 | 0.00 | 53 | 1014.3 |
| 20260507013709 | 74 | 33 | 2.0 | 0.0 | 0.00 | 0.00 | 0.00 | 52 | 1014.3 |
| 20260507013645 | 74 | 33 | 2.0 | 0.0 | 0.00 | 0.00 | 0.00 | 53 | 1014.3 |
| 20260507013602 | 74 | 33 | 2.0 | 0.0 | 0.00 | 0.00 | 0.00 | 52 | 1014.3 |
| 20260507013512 | 74 | 33 | 2.0 | 0.0 | 0.00 | 0.00 | 0.00 | 52 | 1014.3 |
| 20260507013436 | 74 | 33 | 2.0 | 0.0 | 0.00 | 0.00 | 0.00 | 52 | 1014.3 |
| 20260507013414 | 71 | 9 | 0.0 | 3.0 | 0.00 | 0.00 | 0.00 | 56 | 1015.3 |
| 20260507013346 | 74 | 33 | 2.0 | 0.0 | 0.00 | 0.00 | 0.00 | 52 | 1014.3 |
| 20260507013316 | 74 | 33 | 2.0 | 0.0 | 0.00 | 0.00 | 0.00 | 51 | 1014.3 |
| 20260507012951 | 75 | 33 | 2.0 | 2.0 | 0.00 | 0.00 | 0.00 | 52 | 1014.3 |
| 20260507012911 | 71 | 349 | 2.0 | 3.0 | 0.00 | 0.00 | 0.00 | 55 | 1015.4 |
| 20260507012745 | 75 | 353 | 1.0 | 0.0 | 0.00 | 0.00 | 0.00 | 51 | 1014.1 |
| 20260507012655 | 75 | 353 | 1.0 | 0.0 | 0.00 | 0.00 | 0.00 | 51 | 1014.1 |
| 20260507012612 | 75 | 353 | 1.0 | 0.0 | 0.00 | 0.00 | 0.00 | 51 | 1014.1 |
| 20260507012528 | 75 | 353 | 1.0 | 0.0 | 0.00 | 0.00 | 0.00 | 51 | 1014.1 |
| 20260507012438 | 76 | 353 | 1.0 | 0.0 | 0.00 | 0.00 | 0.00 | 51 | 1014.1 |
| 20260507012408 | 72 | 346 | 3.0 | 3.0 | 0.00 | 0.00 | 0.00 | 55 | 1015.5 |
| 20260507012351 | 75 | 353 | 1.0 | 0.0 | 0.00 | 0.00 | 0.00 | 51 | 1014.1 |
| 20260507012306 | 75 | 353 | 1.0 | 0.0 | 0.00 | 0.00 | 0.00 | 50 | 1014.1 |
| 20260507011904 | 73 | 304 | 1.0 | 3.0 | 0.00 | 0.00 | 0.00 | 53 | 1015.3 |
| 20260507011854 | 77 | 353 | 1.0 | 0.0 | 0.00 | 0.00 | 0.00 | 49 | 1014.1 |
| 20260507011654 | 77 | 353 | 1.0 | 2.0 | 0.00 | 0.00 | 0.00 | 49 | 1014.1 |
| 20260507011604 | 77 | 318 | 2.0 | 0.0 | 0.00 | 0.00 | 0.00 | 49 | 1014.2 |
| 20260507011534 | 77 | 318 | 2.0 | 0.0 | 0.00 | 0.00 | 0.00 | 48 | 1014.2 |
| 20260507011448 | 78 | 318 | 2.0 | 0.0 | 0.00 | 0.00 | 0.00 | 48 | 1014.2 |
| 20260507011404 | 78 | 318 | 2.0 | 0.0 | 0.00 | 0.00 | 0.00 | 47 | 1014.2 |
| 20260507011401 | 73 | 339 | 2.0 | 3.0 | 0.00 | 0.00 | 0.00 | 53 | 1015.3 |
| 20260507011321 | 78 | 318 | 2.0 | 0.0 | 0.00 | 0.00 | 0.00 | 48 | 1014.2 |
| 20260507011251 | 77 | 318 | 2.0 | 0.0 | 0.00 | 0.00 | 0.00 | 48 | 1014.2 |
| 20260507011227 | 78 | 318 | 2.0 | 0.0 | 0.00 | 0.00 | 0.00 | 48 | 1014.2 |
| 20260507011121 | 78 | 318 | 2.0 | 0.0 | 0.00 | 0.00 | 0.00 | 48 | 1014.2 |
| 20260507010901 | 73 | 20 | 1.0 | 3.0 | 0.00 | 0.00 | 0.00 | 54 | 1015.3 |
| 20260507010829 | 77 | 318 | 2.0 | 0.0 | 0.00 | 0.00 | 0.00 | 49 | 1014.2 |
| 20260507010746 | 77 | 318 | 2.0 | 0.0 | 0.00 | 0.00 | 0.00 | 49 | 1014.2 |
| 20260507010716 | 77 | 318 | 2.0 | 0.0 | 0.00 | 0.00 | 0.00 | 49 | 1014.2 |
| 20260507010357 | 73 | 299 | 2.0 | 2.0 | 0.00 | 0.00 | 0.00 | 53 | 1015.4 |
| 20260507010300 | 77 | 298 | 2.0 | 0.0 | 0.00 | 0.00 | 0.00 | 48 | 1014.2 |
| 20260507010236 | 77 | 298 | 2.0 | 0.0 | 0.00 | 0.00 | 0.00 | 48 | 1014.2 |
| 20260507010212 | 78 | 298 | 2.0 | 0.0 | 0.00 | 0.00 | 0.00 | 48 | 1014.2 |
| 20260507010129 | 78 | 298 | 2.0 | 0.0 | 0.00 | 0.00 | 0.00 | 48 | 1014.2 |
| 20260507010033 | 77 | 298 | 2.0 | 0.0 | 0.00 | 0.00 | 0.00 | 48 | 1014.2 |
| 20260507005957 | 77 | 298 | 2.0 | 0.0 | 0.00 | 0.00 | 0.00 | 48 | 1014.2 |
| 20260507005926 | 77 | 298 | 2.0 | 0.0 | 0.00 | 0.00 | 0.00 | 49 | 1014.2 |
| 20260507005856 | 77 | 298 | 2.0 | 0.0 | 0.00 | 0.00 | 0.00 | 48 | 1014.2 |
| 20260507005854 | 73 | 338 | 2.0 | 4.0 | 0.00 | 0.00 | 0.00 | 54 | 1015.3 |
| 20260507005819 | 77 | 298 | 2.0 | 0.0 | 0.00 | 0.00 | 0.00 | 48 | 1014.2 |
| 20260507005736 | 77 | 298 | 2.0 | 0.0 | 0.00 | 0.00 | 0.00 | 48 | 1014.2 |
| 20260507005705 | 77 | 298 | 2.0 | 0.0 | 0.00 | 0.00 | 0.00 | 49 | 1014.2 |
| 20260507005634 | 77 | 298 | 2.0 | 2.0 | 0.00 | 0.00 | 0.00 | 48 | 1014.2 |
| 20260507005558 | 77 | 332 | 2.0 | 0.0 | 0.00 | 0.00 | 0.00 | 48 | 1014.2 |
| 20260507005351 | 73 | 334 | 1.0 | 4.0 | 0.00 | 0.00 | 0.00 | 53 | 1015.2 |
| 20260507005011 | 78 | 332 | 2.0 | 0.0 | 0.00 | 0.00 | 0.00 | 47 | 1014.2 |
| 20260507004847 | 73 | 18 | 2.0 | 3.0 | 0.00 | 0.00 | 0.00 | 53 | 1015.2 |
| 20260507004824 | 78 | 332 | 2.0 | 0.0 | 0.00 | 0.00 | 0.00 | 46 | 1014.2 |
| 20260507004753 | 78 | 332 | 2.0 | 0.0 | 0.00 | 0.00 | 0.00 | 47 | 1014.2 |
| 20260507004729 | 78 | 332 | 2.0 | 0.0 | 0.00 | 0.00 | 0.00 | 46 | 1014.2 |
| 20260507004632 | 78 | 332 | 2.0 | 0.0 | 0.00 | 0.00 | 0.00 | 47 | 1014.2 |
| 20260507004555 | 78 | 332 | 2.0 | 0.0 | 0.00 | 0.00 | 0.00 | 47 | 1014.2 |
| 20260507004512 | 78 | 332 | 2.0 | 0.0 | 0.00 | 0.00 | 0.00 | 47 | 1014.2 |
| 20260507004345 | 74 | 228 | 2.0 | 3.0 | 0.00 | 0.00 | 0.00 | 52 | 1015.3 |
| 20260507004129 | 78 | 306 | 2.0 | 0.0 | 0.00 | 0.00 | 0.00 | 46 | 1014.3 |
| 20260507004058 | 78 | 306 | 2.0 | 0.0 | 0.00 | 0.00 | 0.00 | 47 | 1014.3 |
| 20260507004022 | 78 | 306 | 2.0 | 0.0 | 0.00 | 0.00 | 0.00 | 47 | 1014.3 |
| 20260507003932 | 79 | 306 | 2.0 | 0.0 | 0.00 | 0.00 | 0.00 | 46 | 1014.3 |
| 20260507003855 | 79 | 306 | 2.0 | 0.0 | 0.00 | 0.00 | 0.00 | 46 | 1014.3 |
| 20260507003842 | 75 | 238 | 3.0 | 4.0 | 0.00 | 0.00 | 0.00 | 51 | 1015.4 |
| 20260507003819 | 79 | 306 | 2.0 | 0.0 | 0.00 | 0.00 | 0.00 | 47 | 1014.3 |
| 20260507003755 | 79 | 306 | 2.0 | 0.0 | 0.00 | 0.00 | 0.00 | 47 | 1014.3 |
| 20260507003724 | 79 | 306 | 2.0 | 0.0 | 0.00 | 0.00 | 0.00 | 46 | 1014.3 |
| 20260507003445 | 79 | 306 | 2.0 | 0.0 | 0.00 | 0.00 | 0.00 | 46 | 1014.3 |
| 20260507003408 | 79 | 306 | 2.0 | 0.0 | 0.00 | 0.00 | 0.00 | 46 | 1014.3 |
| 20260507003344 | 79 | 306 | 2.0 | 0.0 | 0.00 | 0.00 | 0.00 | 46 | 1014.3 |
| 20260507003337 | 75 | 304 | 0.0 | 4.0 | 0.00 | 0.00 | 0.00 | 51 | 1015.3 |
| 20260507003314 | 79 | 306 | 2.0 | 4.0 | 0.00 | 0.00 | 0.00 | 46 | 1014.3 |
| 20260507003237 | 79 | 285 | 2.0 | 0.0 | 0.00 | 0.00 | 0.00 | 46 | 1014.1 |
| 20260507003203 | 78 | 285 | 2.0 | 0.0 | 0.00 | 0.00 | 0.00 | 46 | 1014.1 |
| 20260507003002 | 78 | 285 | 2.0 | 0.0 | 0.00 | 0.00 | 0.00 | 46 | 1014.1 |
| 20260507002938 | 79 | 285 | 2.0 | 0.0 | 0.00 | 0.00 | 0.00 | 45 | 1014.1 |
| 20260507002832 | 77 | 271 | 2.0 | 5.0 | 0.00 | 0.00 | 0.00 | 48 | 1015.3 |
| 20260507002711 | 78 | 285 | 2.0 | 0.0 | 0.00 | 0.00 | 0.00 | 46 | 1014.1 |
| 20260507002634 | 78 | 285 | 2.0 | 0.0 | 0.00 | 0.00 | 0.00 | 46 | 1014.1 |
| 20260507002557 | 78 | 285 | 2.0 | 0.0 | 0.00 | 0.00 | 0.00 | 46 | 1014.1 |
| 20260507002520 | 78 | 285 | 2.0 | 0.0 | 0.00 | 0.00 | 0.00 | 46 | 1014.1 |
| 20260507002450 | 78 | 285 | 2.0 | 0.0 | 0.00 | 0.00 | 0.00 | 45 | 1014.1 |
| 20260507002329 | 78 | 327 | 2.0 | 3.0 | 0.00 | 0.00 | 0.00 | 48 | 1015.2 |
| 20260507002255 | 78 | 285 | 2.0 | 0.0 | 0.00 | 0.00 | 0.00 | 46 | 1014.1 |
| 20260507002225 | 78 | 285 | 2.0 | 3.0 | 0.00 | 0.00 | 0.00 | 46 | 1014.1 |
| 20260507002135 | 78 | 292 | 2.0 | 0.0 | 0.00 | 0.00 | 0.00 | 46 | 1014.3 |
| 20260507002045 | 78 | 292 | 2.0 | 0.0 | 0.00 | 0.00 | 0.00 | 46 | 1014.3 |
| 20260507002007 | 78 | 292 | 2.0 | 0.0 | 0.00 | 0.00 | 0.00 | 47 | 1014.3 |
| 20260507001937 | 78 | 292 | 2.0 | 0.0 | 0.00 | 0.00 | 0.00 | 46 | 1014.3 |
| 20260507001826 | 77 | 263 | 2.0 | 6.0 | 0.00 | 0.00 | 0.00 | 48 | 1015.2 |
| 20260507001743 | 79 | 292 | 2.0 | 0.0 | 0.00 | 0.00 | 0.00 | 45 | 1014.3 |
| 20260507001646 | 79 | 292 | 2.0 | 0.0 | 0.00 | 0.00 | 0.00 | 45 | 1014.3 |
| 20260507001433 | 79 | 292 | 2.0 | 0.0 | 0.00 | 0.00 | 0.00 | 45 | 1014.3 |
| 20260507001349 | 80 | 292 | 2.0 | 0.0 | 0.00 | 0.00 | 0.00 | 44 | 1014.3 |
| 20260507001323 | 77 | 358 | 2.0 | 5.0 | 0.00 | 0.00 | 0.00 | 49 | 1015.2 |
| 20260507001247 | 80 | 292 | 2.0 | 0.0 | 0.00 | 0.00 | 0.00 | 44 | 1014.3 |
| 20260507001223 | 80 | 292 | 2.0 | 0.0 | 0.00 | 0.00 | 0.00 | 44 | 1014.3 |
| 20260507001153 | 80 | 292 | 2.0 | 3.0 | 0.00 | 0.00 | 0.00 | 44 | 1014.3 |
| 20260507001057 | 80 | 261 | 1.0 | 0.0 | 0.00 | 0.00 | 0.00 | 44 | 1014.3 |
| 20260507001012 | 80 | 261 | 1.0 | 0.0 | 0.00 | 0.00 | 0.00 | 44 | 1014.3 |
| 20260507000819 | 78 | 316 | 0.0 | 4.0 | 0.00 | 0.00 | 0.00 | 48 | 1015.4 |
| 20260507000804 | 80 | 261 | 1.0 | 0.0 | 0.00 | 0.00 | 0.00 | 45 | 1014.3 |
| 20260507000740 | 80 | 261 | 1.0 | 0.0 | 0.00 | 0.00 | 0.00 | 44 | 1014.3 |
| 20260507000717 | 80 | 261 | 1.0 | 0.0 | 0.00 | 0.00 | 0.00 | 45 | 1014.3 |
| 20260507000653 | 80 | 261 | 1.0 | 0.0 | 0.00 | 0.00 | 0.00 | 44 | 1014.3 |
| 20260507000442 | 79 | 261 | 1.0 | 0.0 | 0.00 | 0.00 | 0.00 | 45 | 1014.3 |
| 20260507000409 | 79 | 261 | 1.0 | 0.0 | 0.00 | 0.00 | 0.00 | 44 | 1014.3 |
| 20260507000339 | 79 | 261 | 1.0 | 0.0 | 0.00 | 0.00 | 0.00 | 45 | 1014.3 |
| 20260507000315 | 78 | 313 | 2.0 | 4.0 | 0.00 | 0.00 | 0.00 | 46 | 1015.1 |
| 20260507000302 | 79 | 261 | 1.0 | 0.0 | 0.00 | 0.00 | 0.00 | 45 | 1014.3 |
| 20260507000234 | 79 | 261 | 1.0 | 0.0 | 0.00 | 0.00 | 0.00 | 45 | 1014.3 |
| 20260507000149 | 79 | 261 | 1.0 | 0.0 | 0.00 | 0.00 | 0.00 | 44 | 1014.3 |
| 20260507000126 | 79 | 261 | 1.0 | 0.0 | 0.00 | 0.00 | 0.00 | 44 | 1014.3 |
| 20260507000055 | 79 | 261 | 1.0 | 3.0 | 0.00 | 0.00 | 0.00 | 45 | 1014.3 |
| 20260506235832 | 79 | 271 | 3.0 | 0.0 | 0.00 | 0.00 | 0.00 | 45 | 1014.3 |
| 20260506235812 | 78 | 249 | 1.0 | 7.0 | 0.00 | 0.00 | 0.00 | 47 | 1015.1 |
| 20260506235802 | 79 | 271 | 3.0 | 0.0 | 0.00 | 0.00 | 0.00 | 46 | 1014.3 |
| 20260506235738 | 79 | 271 | 3.0 | 0.0 | 0.00 | 0.00 | 0.00 | 46 | 1014.3 |
| 20260506235531 | 79 | 271 | 3.0 | 0.0 | 0.00 | 0.00 | 0.00 | 45 | 1014.3 |
| 20260506235507 | 79 | 271 | 3.0 | 0.0 | 0.00 | 0.00 | 0.00 | 45 | 1014.3 |
| 20260506235437 | 78 | 271 | 3.0 | 0.0 | 0.00 | 0.00 | 0.00 | 46 | 1014.3 |
| 20260506235347 | 78 | 271 | 3.0 | 0.0 | 0.00 | 0.00 | 0.00 | 46 | 1014.3 |
| 20260506235311 | 78 | 271 | 3.0 | 0.0 | 0.00 | 0.00 | 0.00 | 46 | 1014.3 |
| 20260506235308 | 79 | 322 | 4.0 | 5.0 | 0.00 | 0.00 | 0.00 | 46 | 1015.3 |
| 20260506235241 | 79 | 271 | 3.0 | 0.0 | 0.00 | 0.00 | 0.00 | 45 | 1014.3 |
| 20260506235211 | 80 | 271 | 3.0 | 0.0 | 0.00 | 0.00 | 0.00 | 44 | 1014.3 |
| 20260506235128 | 80 | 271 | 3.0 | 0.0 | 0.00 | 0.00 | 0.00 | 43 | 1014.3 |
| 20260506235058 | 80 | 271 | 3.0 | 0.0 | 0.00 | 0.00 | 0.00 | 44 | 1014.3 |
| 20260506235028 | 80 | 271 | 3.0 | 4.0 | 0.00 | 0.00 | 0.00 | 44 | 1014.3 |
| 20260506234938 | 79 | 278 | 3.0 | 0.0 | 0.00 | 0.00 | 0.00 | 45 | 1014.4 |
| 20260506234908 | 80 | 278 | 3.0 | 0.0 | 0.00 | 0.00 | 0.00 | 44 | 1014.4 |
| 20260506234844 | 80 | 278 | 3.0 | 0.0 | 0.00 | 0.00 | 0.00 | 45 | 1014.4 |
| 20260506234807 | 80 | 278 | 3.0 | 0.0 | 0.00 | 0.00 | 0.00 | 45 | 1014.4 |
| 20260506234805 | 78 | 264 | 4.0 | 4.0 | 0.00 | 0.00 | 0.00 | 46 | 1015.1 |
| 20260506234731 | 80 | 278 | 3.0 | 0.0 | 0.00 | 0.00 | 0.00 | 44 | 1014.4 |
| 20260506234701 | 80 | 278 | 3.0 | 0.0 | 0.00 | 0.00 | 0.00 | 45 | 1014.4 |
| 20260506234441 | 80 | 278 | 3.0 | 0.0 | 0.00 | 0.00 | 0.00 | 44 | 1014.4 |
| 20260506234358 | 80 | 278 | 3.0 | 0.0 | 0.00 | 0.00 | 0.00 | 44 | 1014.4 |
| 20260506234302 | 78 | 278 | 3.0 | 4.0 | 0.00 | 0.00 | 0.00 | 46 | 1015.1 |
| 20260506234203 | 80 | 278 | 3.0 | 0.0 | 0.00 | 0.00 | 0.00 | 45 | 1014.4 |
| 20260506234120 | 80 | 278 | 3.0 | 0.0 | 0.00 | 0.00 | 0.00 | 44 | 1014.4 |
| 20260506234051 | 80 | 278 | 3.0 | 0.0 | 0.00 | 0.00 | 0.00 | 45 | 1014.4 |
| 20260506234012 | 80 | 278 | 3.0 | 3.0 | 0.00 | 0.00 | 0.00 | 44 | 1014.4 |
| 20260506233922 | 80 | 254 | 4.0 | 0.0 | 0.00 | 0.00 | 0.00 | 44 | 1014.5 |
| 20260506233800 | 78 | 284 | 2.0 | 10.0 | 0.00 | 0.00 | 0.00 | 46 | 1015.2 |
| 20260506233728 | 80 | 254 | 4.0 | 0.0 | 0.00 | 0.00 | 0.00 | 44 | 1014.5 |
| 20260506233652 | 80 | 254 | 4.0 | 0.0 | 0.00 | 0.00 | 0.00 | 44 | 1014.5 |
| 20260506233256 | 79 | 249 | 1.0 | 5.0 | 0.00 | 0.00 | 0.00 | 45 | 1015.0 |
| 20260506233242 | 80 | 254 | 4.0 | 0.0 | 0.00 | 0.00 | 0.00 | 45 | 1014.5 |
| 20260506233159 | 80 | 254 | 4.0 | 0.0 | 0.00 | 0.00 | 0.00 | 45 | 1014.5 |
| 20260506233135 | 80 | 254 | 4.0 | 0.0 | 0.00 | 0.00 | 0.00 | 45 | 1014.5 |
| 20260506232939 | 79 | 254 | 4.0 | 0.0 | 0.00 | 0.00 | 0.00 | 45 | 1014.5 |
| 20260506232908 | 80 | 254 | 4.0 | 0.0 | 0.00 | 0.00 | 0.00 | 44 | 1014.5 |
| 20260506232845 | 80 | 254 | 4.0 | 0.0 | 0.00 | 0.00 | 0.00 | 44 | 1014.5 |
| 20260506232814 | 80 | 254 | 4.0 | 6.0 | 0.00 | 0.00 | 0.00 | 44 | 1014.5 |
| 20260506232748 | 80 | 208 | 1.0 | 4.0 | 0.00 | 0.00 | 0.00 | 44 | 1015.2 |
| 20260506232738 | 80 | 331 | 3.0 | 0.0 | 0.00 | 0.00 | 0.00 | 45 | 1014.4 |
| 20260506232714 | 80 | 331 | 3.0 | 0.0 | 0.00 | 0.00 | 0.00 | 44 | 1014.4 |
| 20260506232638 | 80 | 331 | 3.0 | 0.0 | 0.00 | 0.00 | 0.00 | 45 | 1014.4 |
| 20260506232555 | 80 | 331 | 3.0 | 0.0 | 0.00 | 0.00 | 0.00 | 44 | 1014.4 |
| 20260506232452 | 80 | 331 | 3.0 | 0.0 | 0.00 | 0.00 | 0.00 | 44 | 1014.4 |
| 20260506232429 | 80 | 331 | 3.0 | 0.0 | 0.00 | 0.00 | 0.00 | 45 | 1014.4 |
| 20260506232352 | 80 | 331 | 3.0 | 0.0 | 0.00 | 0.00 | 0.00 | 44 | 1014.4 |
| 20260506232256 | 80 | 331 | 3.0 | 0.0 | 0.00 | 0.00 | 0.00 | 45 | 1014.4 |
| 20260506232247 | 79 | 181 | 1.0 | 4.0 | 0.00 | 0.00 | 0.00 | 45 | 1015.1 |
| 20260506232232 | 80 | 331 | 3.0 | 0.0 | 0.00 | 0.00 | 0.00 | 45 | 1014.4 |
| 20260506232202 | 80 | 331 | 3.0 | 0.0 | 0.00 | 0.00 | 0.00 | 44 | 1014.4 |
| 20260506232118 | 81 | 331 | 3.0 | 0.0 | 0.00 | 0.00 | 0.00 | 44 | 1014.4 |
| 20260506231905 | 81 | 331 | 3.0 | 0.0 | 0.00 | 0.00 | 0.00 | 44 | 1014.4 |
| 20260506231835 | 81 | 331 | 3.0 | 3.0 | 0.00 | 0.00 | 0.00 | 44 | 1014.4 |
| 20260506231756 | 81 | 296 | 2.0 | 0.0 | 0.00 | 0.00 | 0.00 | 45 | 1014.6 |
| 20260506231745 | 79 | 39 | 0.0 | 5.0 | 0.00 | 0.00 | 0.00 | 46 | 1015.2 |
| 20260506231733 | 80 | 296 | 2.0 | 0.0 | 0.00 | 0.00 | 0.00 | 45 | 1014.6 |
| 20260506231709 | 80 | 296 | 2.0 | 0.0 | 0.00 | 0.00 | 0.00 | 45 | 1014.6 |
| 20260506231645 | 80 | 296 | 2.0 | 0.0 | 0.00 | 0.00 | 0.00 | 44 | 1014.6 |
| 20260506231554 | 80 | 296 | 2.0 | 0.0 | 0.00 | 0.00 | 0.00 | 45 | 1014.6 |
| 20260506231518 | 80 | 296 | 2.0 | 0.0 | 0.00 | 0.00 | 0.00 | 45 | 1014.6 |
| 20260506231436 | 80 | 296 | 2.0 | 0.0 | 0.00 | 0.00 | 0.00 | 45 | 1014.6 |
| 20260506231243 | 79 | 304 | 4.0 | 6.0 | 0.00 | 0.00 | 0.00 | 45 | 1015.2 |
| 20260506231214 | 80 | 296 | 2.0 | 0.0 | 0.00 | 0.00 | 0.00 | 45 | 1014.6 |
| 20260506231143 | 81 | 296 | 2.0 | 0.0 | 0.00 | 0.00 | 0.00 | 44 | 1014.6 |
| 20260506230942 | 80 | 296 | 2.0 | 0.0 | 0.00 | 0.00 | 0.00 | 44 | 1014.6 |
| 20260506230912 | 81 | 296 | 2.0 | 0.0 | 0.00 | 0.00 | 0.00 | 45 | 1014.6 |
| 20260506230842 | 81 | 296 | 2.0 | 0.0 | 0.00 | 0.00 | 0.00 | 44 | 1014.6 |
| 20260506230740 | 80 | 336 | 2.0 | 5.0 | 0.00 | 0.00 | 0.00 | 44 | 1015.1 |
| 20260506230641 | 80 | 296 | 2.0 | 2.0 | 0.00 | 0.00 | 0.00 | 45 | 1014.6 |
| 20260506230552 | 80 | 290 | 3.0 | 0.0 | 0.00 | 0.00 | 0.00 | 45 | 1014.8 |
| 20260506230515 | 80 | 290 | 3.0 | 0.0 | 0.00 | 0.00 | 0.00 | 44 | 1014.8 |
| 20260506230242 | 80 | 290 | 3.0 | 0.0 | 0.00 | 0.00 | 0.00 | 45 | 1014.8 |
| 20260506230236 | 80 | 290 | 2.0 | 4.0 | 0.00 | 0.00 | 0.00 | 44 | 1015.2 |
| 20260506230206 | 80 | 290 | 3.0 | 0.0 | 0.00 | 0.00 | 0.00 | 45 | 1014.8 |
| 20260506230142 | 80 | 290 | 3.0 | 0.0 | 0.00 | 0.00 | 0.00 | 45 | 1014.8 |
| 20260506230112 | 80 | 290 | 3.0 | 0.0 | 0.00 | 0.00 | 0.00 | 44 | 1014.8 |
| 20260506225823 | 80 | 290 | 3.0 | 0.0 | 0.00 | 0.00 | 0.00 | 45 | 1014.8 |
| 20260506225733 | 80 | 19 | 1.0 | 5.0 | 0.00 | 0.00 | 0.00 | 45 | 1015.3 |
| 20260506225622 | 80 | 290 | 3.0 | 0.0 | 0.00 | 0.00 | 0.00 | 45 | 1014.8 |
| 20260506225546 | 80 | 290 | 3.0 | 0.0 | 0.00 | 0.00 | 0.00 | 45 | 1014.8 |
| 20260506225516 | 80 | 290 | 3.0 | 0.0 | 0.00 | 0.00 | 0.00 | 44 | 1014.8 |
| 20260506225445 | 80 | 290 | 3.0 | 5.0 | 0.00 | 0.00 | 0.00 | 44 | 1014.8 |
| 20260506225408 | 80 | 257 | 4.0 | 0.0 | 0.00 | 0.00 | 0.00 | 45 | 1014.9 |
| 20260506225345 | 80 | 257 | 4.0 | 0.0 | 0.00 | 0.00 | 0.00 | 44 | 1014.9 |
| 20260506225321 | 80 | 257 | 4.0 | 0.0 | 0.00 | 0.00 | 0.00 | 44 | 1014.9 |
| 20260506225257 | 80 | 257 | 4.0 | 0.0 | 0.00 | 0.00 | 0.00 | 45 | 1014.9 |
| 20260506225230 | 80 | 300 | 2.0 | 4.0 | 0.00 | 0.00 | 0.00 | 45 | 1015.3 |
| 20260506225227 | 80 | 257 | 4.0 | 0.0 | 0.00 | 0.00 | 0.00 | 44 | 1014.9 |
| 20260506225204 | 81 | 257 | 4.0 | 0.0 | 0.00 | 0.00 | 0.00 | 45 | 1014.9 |
| 20260506225140 | 81 | 257 | 4.0 | 0.0 | 0.00 | 0.00 | 0.00 | 45 | 1014.9 |
| 20260506225109 | 81 | 257 | 4.0 | 0.0 | 0.00 | 0.00 | 0.00 | 44 | 1014.9 |
| 20260506225046 | 81 | 257 | 4.0 | 0.0 | 0.00 | 0.00 | 0.00 | 44 | 1014.9 |
| 20260506224726 | 80 | 337 | 1.0 | 5.0 | 0.00 | 0.00 | 0.00 | 45 | 1015.3 |
| 20260506224648 | 80 | 257 | 4.0 | 0.0 | 0.00 | 0.00 | 0.00 | 45 | 1014.9 |
| 20260506224618 | 80 | 257 | 4.0 | 0.0 | 0.00 | 0.00 | 0.00 | 43 | 1014.9 |
| 20260506224506 | 80 | 257 | 4.0 | 0.0 | 0.00 | 0.00 | 0.00 | 44 | 1014.9 |
| 20260506224442 | 80 | 257 | 4.0 | 0.0 | 0.00 | 0.00 | 0.00 | 44 | 1014.9 |
| 20260506224412 | 80 | 257 | 4.0 | 0.0 | 0.00 | 0.00 | 0.00 | 43 | 1014.9 |
| 20260506224342 | 80 | 257 | 4.0 | 0.0 | 0.00 | 0.00 | 0.00 | 44 | 1014.9 |
| 20260506224224 | 80 | 8 | 2.0 | 5.0 | 0.00 | 0.00 | 0.00 | 44 | 1015.4 |
| 20260506224135 | 81 | 345 | 2.0 | 0.0 | 0.00 | 0.00 | 0.00 | 44 | 1015.1 |
| 20260506224111 | 80 | 345 | 2.0 | 0.0 | 0.00 | 0.00 | 0.00 | 44 | 1015.1 |
| 20260506223857 | 80 | 345 | 2.0 | 0.0 | 0.00 | 0.00 | 0.00 | 44 | 1015.1 |
| 20260506223807 | 80 | 345 | 2.0 | 0.0 | 0.00 | 0.00 | 0.00 | 45 | 1015.1 |
| 20260506223720 | 80 | 216 | 2.0 | 5.0 | 0.00 | 0.00 | 0.00 | 44 | 1015.5 |
| 20260506223606 | 80 | 345 | 2.0 | 0.0 | 0.00 | 0.00 | 0.00 | 45 | 1015.1 |